Wetterdaten: Freitag, 02.04.2021
Datum Zeit Temp. Aussen Temp. o. S. Temp +5cm Feuchte Auss Luftdruck Regen Sonnenschein Regendauer Solar Windben Empfang
02.04.2021 00:00 7,0 C 6,1 C 3,9 C 84 % 1024,8 hPa 0,0 l/m 0 min 0 min 0 W/m 16,1 km/h (3 Bft) 100,00 %
02.04.2021 00:02 7,0 C 6,1 C 3,9 C 84 % 1024,9 hPa 0,0 l/m 0 min 0 min 0 W/m 9,7 km/h (2 Bft) 100,00 %
02.04.2021 00:04 6,9 C 6,1 C 3,9 C 84 % 1024,8 hPa 0,0 l/m 0 min 0 min 0 W/m 12,9 km/h (3 Bft) 100,00 %
02.04.2021 00:08 6,9 C 6,1 C 3,9 C 84 % 1024,9 hPa 0,0 l/m 0 min 0 min 0 W/m 22,5 km/h (4 Bft) 100,00 %
02.04.2021 00:10 6,8 C 6,1 C 3,9 C 84 % 1024,9 hPa 0,0 l/m 0 min 0 min 0 W/m 9,7 km/h (2 Bft) 100,00 %
02.04.2021 00:12 6,8 C 6,1 C 3,9 C 84 % 1024,9 hPa 0,0 l/m 0 min 0 min 0 W/m 19,3 km/h (3 Bft) 97,87 %
02.04.2021 00:14 6,8 C 6,1 C 3,9 C 85 % 1025,0 hPa 0,0 l/m 0 min 0 min 0 W/m 16,1 km/h (3 Bft) 100,00 %
02.04.2021 00:16 6,7 C 6,1 C 3,9 C 85 % 1025,0 hPa 0,0 l/m 0 min 0 min 0 W/m 12,9 km/h (3 Bft) 100,00 %
02.04.2021 00:18 6,7 C 6,1 C 3,9 C 85 % 1025,0 hPa 0,0 l/m 0 min 0 min 0 W/m 12,9 km/h (3 Bft) 93,62 %
02.04.2021 00:20 6,7 C 6,1 C 3,9 C 85 % 1025,0 hPa 0,0 l/m 0 min 0 min 0 W/m 12,9 km/h (3 Bft) 95,74 %
02.04.2021 00:22 6,6 C 5,6 C 3,9 C 85 % 1025,0 hPa 0,0 l/m 0 min 0 min 0 W/m 12,9 km/h (3 Bft) 93,62 %
02.04.2021 00:24 6,6 C 5,6 C 3,9 C 85 % 1025,0 hPa 0,0 l/m 0 min 0 min 0 W/m 16,1 km/h (3 Bft) 95,65 %
02.04.2021 00:26 6,6 C 5,6 C 3,4 C 85 % 1025,0 hPa 0,0 l/m 0 min 0 min 0 W/m 12,9 km/h (3 Bft) 93,62 %
02.04.2021 00:28 6,5 C 5,6 C 3,4 C 85 % 1025,0 hPa 0,0 l/m 0 min 0 min 0 W/m 12,9 km/h (3 Bft) 95,74 %
02.04.2021 00:30 6,5 C 5,6 C 3,4 C 85 % 1025,0 hPa 0,0 l/m 0 min 0 min 0 W/m 12,9 km/h (3 Bft) 95,74 %
02.04.2021 00:32 6,5 C 5,6 C 3,4 C 85 % 1025,0 hPa 0,0 l/m 0 min 0 min 0 W/m 16,1 km/h (3 Bft) 95,74 %
02.04.2021 00:34 6,5 C 5,6 C 3,4 C 85 % 1025,0 hPa 0,0 l/m 0 min 0 min 0 W/m 6,4 km/h (2 Bft) 93,62 %
02.04.2021 00:36 6,5 C 5,6 C 3,4 C 85 % 1025,0 hPa 0,0 l/m 0 min 0 min 0 W/m 16,1 km/h (3 Bft) 95,65 %
02.04.2021 00:38 6,4 C 5,6 C 3,4 C 85 % 1025,0 hPa 0,0 l/m 0 min 0 min 0 W/m 12,9 km/h (3 Bft) 95,74 %
02.04.2021 00:40 6,4 C 5,6 C 3,4 C 85 % 1025,0 hPa 0,0 l/m 0 min 0 min 0 W/m 9,7 km/h (2 Bft) 95,74 %
02.04.2021 00:42 6,4 C 5,6 C 3,4 C 85 % 1025,0 hPa 0,0 l/m 0 min 0 min 0 W/m 6,4 km/h (2 Bft) 95,74 %
02.04.2021 00:44 6,4 C 5,6 C 3,4 C 85 % 1025,0 hPa 0,0 l/m 0 min 0 min 0 W/m 9,7 km/h (2 Bft) 95,74 %
02.04.2021 00:46 6,4 C 5,6 C 3,4 C 86 % 1025,0 hPa 0,0 l/m 0 min 0 min 0 W/m 6,4 km/h (2 Bft) 93,62 %
02.04.2021 00:48 6,4 C 5,6 C 3,4 C 86 % 1025,0 hPa 0,0 l/m 0 min 0 min 0 W/m 12,9 km/h (3 Bft) 95,65 %
02.04.2021 00:50 6,3 C 5,6 C 3,4 C 86 % 1025,0 hPa 0,0 l/m 0 min 0 min 0 W/m 6,4 km/h (2 Bft) 95,74 %
02.04.2021 00:52 6,3 C 5,6 C 3,4 C 86 % 1025,0 hPa 0,0 l/m 0 min 0 min 0 W/m 9,7 km/h (2 Bft) 91,49 %
02.04.2021 00:54 6,3 C 5,6 C 3,4 C 86 % 1025,0 hPa 0,0 l/m 0 min 0 min 0 W/m 9,7 km/h (2 Bft) 93,62 %
02.04.2021 00:56 6,2 C 5,6 C 3,4 C 86 % 1025,0 hPa 0,0 l/m 0 min 0 min 0 W/m 16,1 km/h (3 Bft) 93,62 %
02.04.2021 00:58 6,1 C 5,0 C 3,4 C 86 % 1025,0 hPa 0,0 l/m 0 min 0 min 0 W/m 6,4 km/h (2 Bft) 95,74 %
02.04.2021 01:00 6,1 C 5,0 C 3,4 C 86 % 1025,0 hPa 0,0 l/m 0 min 0 min 0 W/m 22,5 km/h (4 Bft) 95,65 %
02.04.2021 01:02 6,1 C 5,0 C 3,4 C 86 % 1025,0 hPa 0,0 l/m 0 min 0 min 0 W/m 9,7 km/h (2 Bft) 94,34 %
02.04.2021 01:04 6,0 C 5,0 C 2,8 C 86 % 1025,0 hPa 0,0 l/m 0 min 0 min 0 W/m 12,9 km/h (3 Bft) 93,62 %
02.04.2021 01:06 6,0 C 5,0 C 2,8 C 86 % 1025,0 hPa 0,0 l/m 0 min 0 min 0 W/m 6,4 km/h (2 Bft) 95,74 %
02.04.2021 01:08 6,0 C 5,0 C 2,8 C 86 % 1025,0 hPa 0,0 l/m 0 min 0 min 0 W/m 9,7 km/h (2 Bft) 97,56 %
02.04.2021 01:10 6,0 C 5,0 C 2,8 C 87 % 1025,0 hPa 0,0 l/m 0 min 0 min 0 W/m 16,1 km/h (3 Bft) 94,23 %
02.04.2021 01:12 6,0 C 5,0 C 2,8 C 87 % 1025,0 hPa 0,0 l/m 0 min 0 min 0 W/m 6,4 km/h (2 Bft) 95,74 %
02.04.2021 01:14 5,9 C 5,0 C 2,8 C 87 % 1025,0 hPa 0,0 l/m 0 min 0 min 0 W/m 9,7 km/h (2 Bft) 95,74 %
02.04.2021 01:16 5,9 C 5,0 C 2,8 C 87 % 1025,0 hPa 0,0 l/m 0 min 0 min 0 W/m 19,3 km/h (3 Bft) 95,12 %
02.04.2021 01:18 5,9 C 5,0 C 2,8 C 87 % 1025,0 hPa 0,0 l/m 0 min 0 min 0 W/m 9,7 km/h (2 Bft) 97,87 %
02.04.2021 01:20 5,8 C 5,0 C 2,8 C 87 % 1025,0 hPa 0,0 l/m 0 min 0 min 0 W/m 12,9 km/h (3 Bft) 97,87 %
02.04.2021 01:22 5,8 C 5,0 C 2,8 C 87 % 1024,9 hPa 0,0 l/m 0 min 0 min 0 W/m 6,4 km/h (2 Bft) 93,62 %
02.04.2021 01:24 5,8 C 5,0 C 2,8 C 87 % 1024,9 hPa 0,0 l/m 0 min 0 min 0 W/m 6,4 km/h (2 Bft) 97,83 %
02.04.2021 01:26 5,8 C 5,0 C 2,8 C 87 % 1025,0 hPa 0,0 l/m 0 min 0 min 0 W/m 6,4 km/h (2 Bft) 97,87 %
02.04.2021 01:28 5,8 C 5,0 C 2,8 C 87 % 1024,9 hPa 0,0 l/m 0 min 0 min 0 W/m 3,2 km/h (1 Bft) 93,62 %
02.04.2021 01:30 5,8 C 5,0 C 2,8 C 87 % 1024,9 hPa 0,0 l/m 0 min 0 min 0 W/m 3,2 km/h (1 Bft) 95,74 %
02.04.2021 01:32 5,7 C 5,0 C 2,8 C 87 % 1024,9 hPa 0,0 l/m 0 min 0 min 0 W/m 6,4 km/h (2 Bft) 98,15 %
02.04.2021 01:34 5,7 C 5,0 C 2,8 C 87 % 1024,9 hPa 0,0 l/m 0 min 0 min 0 W/m 6,4 km/h (2 Bft) 95,65 %
02.04.2021 01:36 5,7 C 5,0 C 2,8 C 87 % 1024,9 hPa 0,0 l/m 0 min 0 min 0 W/m 9,7 km/h (2 Bft) 93,62 %
02.04.2021 01:38 5,6 C 5,0 C 2,8 C 88 % 1024,9 hPa 0,0 l/m 0 min 0 min 0 W/m 9,7 km/h (2 Bft) 93,62 %
02.04.2021 01:40 5,6 C 5,0 C 2,8 C 88 % 1024,9 hPa 0,0 l/m 0 min 0 min 0 W/m 6,4 km/h (2 Bft) 95,74 %
02.04.2021 01:42 5,6 C 4,4 C 2,8 C 88 % 1024,9 hPa 0,0 l/m 0 min 0 min 0 W/m 9,7 km/h (2 Bft) 95,74 %
02.04.2021 01:44 5,6 C 4,4 C 2,8 C 88 % 1024,9 hPa 0,0 l/m 0 min 0 min 0 W/m 3,2 km/h (1 Bft) 95,74 %
02.04.2021 01:46 5,5 C 4,4 C 2,8 C 88 % 1024,9 hPa 0,0 l/m 0 min 0 min 0 W/m 6,4 km/h (2 Bft) 95,65 %
02.04.2021 01:48 5,5 C 4,4 C 2,8 C 88 % 1024,9 hPa 0,0 l/m 0 min 0 min 0 W/m 3,2 km/h (1 Bft) 95,74 %
02.04.2021 01:50 5,5 C 4,4 C 2,8 C 88 % 1024,9 hPa 0,0 l/m 0 min 0 min 0 W/m 9,7 km/h (2 Bft) 95,74 %
02.04.2021 01:52 5,5 C 4,4 C 2,8 C 88 % 1024,9 hPa 0,0 l/m 0 min 0 min 0 W/m 6,4 km/h (2 Bft) 94,00 %
02.04.2021 01:54 5,5 C 4,4 C 2,8 C 88 % 1025,0 hPa 0,0 l/m 0 min 0 min 0 W/m 9,7 km/h (2 Bft) 95,74 %
02.04.2021 01:56 5,4 C 4,4 C 2,8 C 88 % 1025,0 hPa 0,0 l/m 0 min 0 min 0 W/m 9,7 km/h (2 Bft) 93,48 %
02.04.2021 01:58 5,4 C 4,4 C 2,8 C 88 % 1025,0 hPa 0,0 l/m 0 min 0 min 0 W/m 6,4 km/h (2 Bft) 95,74 %
02.04.2021 02:00 5,4 C 4,4 C 2,8 C 88 % 1025,1 hPa 0,0 l/m 0 min 0 min 0 W/m 6,4 km/h (2 Bft) 100,00 %
02.04.2021 02:02 5,4 C 4,4 C 2,8 C 88 % 1025,1 hPa 0,0 l/m 0 min 0 min 0 W/m 6,4 km/h (2 Bft) 97,87 %
02.04.2021 02:04 5,4 C 4,4 C 2,3 C 88 % 1025,1 hPa 0,0 l/m 0 min 0 min 0 W/m 6,4 km/h (2 Bft) 100,00 %
02.04.2021 02:06 5,4 C 4,4 C 2,3 C 88 % 1025,0 hPa 0,0 l/m 0 min 0 min 0 W/m 12,9 km/h (3 Bft) 100,00 %
02.04.2021 02:08 5,3 C 4,4 C 2,3 C 88 % 1025,1 hPa 0,0 l/m 0 min 0 min 0 W/m 9,7 km/h (2 Bft) 100,00 %
02.04.2021 02:10 5,3 C 4,4 C 2,3 C 88 % 1025,0 hPa 0,0 l/m 0 min 0 min 0 W/m 6,4 km/h (2 Bft) 100,00 %
02.04.2021 02:12 5,3 C 4,4 C 2,3 C 88 % 1025,0 hPa 0,0 l/m 0 min 0 min 0 W/m 9,7 km/h (2 Bft) 97,87 %
02.04.2021 02:14 5,3 C 4,4 C 2,3 C 88 % 1025,0 hPa 0,0 l/m 0 min 0 min 0 W/m 3,2 km/h (1 Bft) 100,00 %
02.04.2021 02:16 5,2 C 4,4 C 2,3 C 88 % 1025,0 hPa 0,0 l/m 0 min 0 min 0 W/m 19,3 km/h (3 Bft) 100,00 %
02.04.2021 02:18 5,2 C 4,4 C 2,3 C 88 % 1025,0 hPa 0,0 l/m 0 min 0 min 0 W/m 9,7 km/h (2 Bft) 100,00 %
02.04.2021 02:20 5,1 C 4,4 C 2,3 C 88 % 1025,0 hPa 0,0 l/m 0 min 0 min 0 W/m 22,5 km/h (4 Bft) 100,00 %
02.04.2021 02:22 5,1 C 4,4 C 2,3 C 88 % 1025,0 hPa 0,0 l/m 0 min 0 min 0 W/m 6,4 km/h (2 Bft) 97,87 %
02.04.2021 02:24 5,1 C 4,4 C 2,3 C 88 % 1025,0 hPa 0,0 l/m 0 min 0 min 0 W/m 6,4 km/h (2 Bft) 100,00 %
02.04.2021 02:26 5,1 C 4,4 C 2,3 C 89 % 1024,9 hPa 0,0 l/m 0 min 0 min 0 W/m 12,9 km/h (3 Bft) 100,00 %
02.04.2021 02:28 5,0 C 4,4 C 2,3 C 89 % 1025,0 hPa 0,0 l/m 0 min 0 min 0 W/m 12,9 km/h (3 Bft) 100,00 %
02.04.2021 02:30 5,0 C 4,4 C 2,3 C 88 % 1024,9 hPa 0,0 l/m 0 min 0 min 0 W/m 12,9 km/h (3 Bft) 100,00 %
02.04.2021 02:32 5,0 C 4,4 C 2,3 C 88 % 1024,9 hPa 0,0 l/m 0 min 0 min 0 W/m 12,9 km/h (3 Bft) 97,83 %
02.04.2021 02:34 5,0 C 4,4 C 2,3 C 88 % 1024,9 hPa 0,0 l/m 0 min 0 min 0 W/m 9,7 km/h (2 Bft) 100,00 %
02.04.2021 02:36 5,0 C 4,4 C 2,3 C 88 % 1024,9 hPa 0,0 l/m 0 min 0 min 0 W/m 12,9 km/h (3 Bft) 100,00 %
02.04.2021 02:38 5,0 C 4,4 C 2,3 C 88 % 1024,9 hPa 0,0 l/m 0 min 0 min 0 W/m 12,9 km/h (3 Bft) 100,00 %
02.04.2021 02:40 5,0 C 4,4 C 2,3 C 88 % 1024,9 hPa 0,0 l/m 0 min 0 min 0 W/m 6,4 km/h (2 Bft) 95,74 %
02.04.2021 02:42 4,9 C 3,9 C 2,3 C 89 % 1024,9 hPa 0,0 l/m 0 min 0 min 0 W/m 6,4 km/h (2 Bft) 97,83 %
02.04.2021 02:44 4,9 C 4,4 C 2,3 C 89 % 1024,8 hPa 0,0 l/m 0 min 0 min 0 W/m 6,4 km/h (2 Bft) 100,00 %
02.04.2021 02:46 4,9 C 3,9 C 2,3 C 89 % 1024,8 hPa 0,0 l/m 0 min 0 min 0 W/m 9,7 km/h (2 Bft) 100,00 %
02.04.2021 02:48 4,9 C 4,4 C 2,3 C 89 % 1024,8 hPa 0,0 l/m 0 min 0 min 0 W/m 6,4 km/h (2 Bft) 100,00 %
02.04.2021 02:50 4,9 C 4,4 C 2,3 C 89 % 1024,8 hPa 0,0 l/m 0 min 0 min 0 W/m 3,2 km/h (1 Bft) 100,00 %
02.04.2021 02:52 4,9 C 3,9 C 2,3 C 89 % 1024,8 hPa 0,0 l/m 0 min 0 min 0 W/m 9,7 km/h (2 Bft) 100,00 %
02.04.2021 02:54 4,9 C 3,9 C 2,3 C 89 % 1024,8 hPa 0,0 l/m 0 min 0 min 0 W/m 9,7 km/h (2 Bft) 100,00 %
02.04.2021 02:56 4,9 C 3,9 C 2,3 C 89 % 1024,8 hPa 0,0 l/m 0 min 0 min 0 W/m 9,7 km/h (2 Bft) 100,00 %
02.04.2021 02:58 4,9 C 3,9 C 2,3 C 89 % 1024,8 hPa 0,0 l/m 0 min 0 min 0 W/m 9,7 km/h (2 Bft) 100,00 %
02.04.2021 03:00 4,8 C 3,9 C 2,3 C 89 % 1024,8 hPa 0,0 l/m 0 min 0 min 0 W/m 12,9 km/h (3 Bft) 100,00 %
02.04.2021 03:02 4,8 C 3,9 C 2,3 C 89 % 1024,8 hPa 0,0 l/m 0 min 0 min 0 W/m 9,7 km/h (2 Bft) 100,00 %
02.04.2021 03:04 4,8 C 3,9 C 2,3 C 89 % 1024,8 hPa 0,0 l/m 0 min 0 min 0 W/m 6,4 km/h (2 Bft) 97,87 %
02.04.2021 03:06 4,8 C 3,9 C 2,3 C 89 % 1024,7 hPa 0,0 l/m 0 min 0 min 0 W/m 3,2 km/h (1 Bft) 100,00 %
02.04.2021 03:08 4,8 C 3,9 C 1,7 C 89 % 1024,7 hPa 0,0 l/m 0 min 0 min 0 W/m 6,4 km/h (2 Bft) 100,00 %
02.04.2021 03:10 4,7 C 3,9 C 1,7 C 89 % 1024,8 hPa 0,0 l/m 0 min 0 min 0 W/m 9,7 km/h (2 Bft) 97,87 %
02.04.2021 03:12 4,7 C 3,9 C 1,7 C 89 % 1024,8 hPa 0,0 l/m 0 min 0 min 0 W/m 6,4 km/h (2 Bft) 95,74 %
02.04.2021 03:14 4,6 C 3,9 C 1,7 C 89 % 1024,8 hPa 0,0 l/m 0 min 0 min 0 W/m 9,7 km/h (2 Bft) 97,87 %
02.04.2021 03:16 4,6 C 3,9 C 1,7 C 89 % 1024,8 hPa 0,0 l/m 0 min 0 min 0 W/m 6,4 km/h (2 Bft) 100,00 %
02.04.2021 03:18 4,6 C 3,9 C 1,7 C 89 % 1024,8 hPa 0,0 l/m 0 min 0 min 0 W/m 6,4 km/h (2 Bft) 100,00 %
02.04.2021 03:20 4,6 C 3,9 C 1,7 C 89 % 1024,8 hPa 0,0 l/m 0 min 0 min 0 W/m 19,3 km/h (3 Bft) 97,83 %
02.04.2021 03:22 4,5 C 3,9 C 1,7 C 89 % 1024,9 hPa 0,0 l/m 0 min 0 min 0 W/m 6,4 km/h (2 Bft) 100,00 %
02.04.2021 03:24 4,5 C 3,9 C 1,7 C 89 % 1024,9 hPa 0,0 l/m 0 min 0 min 0 W/m 9,7 km/h (2 Bft) 93,62 %
02.04.2021 03:26 4,5 C 3,9 C 1,7 C 89 % 1024,8 hPa 0,0 l/m 0 min 0 min 0 W/m 12,9 km/h (3 Bft) 97,87 %
02.04.2021 03:28 4,5 C 3,3 C 1,7 C 89 % 1024,8 hPa 0,0 l/m 0 min 0 min 0 W/m 6,4 km/h (2 Bft) 97,87 %
02.04.2021 03:30 4,5 C 3,3 C 1,7 C 89 % 1024,8 hPa 0,0 l/m 0 min 0 min 0 W/m 9,7 km/h (2 Bft) 97,83 %
02.04.2021 03:32 4,4 C 3,3 C 1,7 C 89 % 1024,9 hPa 0,0 l/m 0 min 0 min 0 W/m 16,1 km/h (3 Bft) 97,92 %
02.04.2021 03:34 4,4 C 3,3 C 1,7 C 89 % 1024,8 hPa 0,0 l/m 0 min 0 min 0 W/m 9,7 km/h (2 Bft) 97,87 %
02.04.2021 03:36 4,4 C 3,3 C 1,7 C 89 % 1024,9 hPa 0,0 l/m 0 min 0 min 0 W/m 9,7 km/h (2 Bft) 97,87 %
02.04.2021 03:38 4,4 C 3,3 C 1,7 C 89 % 1024,8 hPa 0,0 l/m 0 min 0 min 0 W/m 3,2 km/h (1 Bft) 97,87 %
02.04.2021 03:40 4,4 C 3,3 C 1,7 C 89 % 1024,8 hPa 0,0 l/m 0 min 0 min 0 W/m 0,0 km/h (0 Bft) 97,87 %
02.04.2021 03:42 4,4 C 3,3 C 1,7 C 89 % 1024,9 hPa 0,0 l/m 0 min 0 min 0 W/m 12,9 km/h (3 Bft) 97,83 %
02.04.2021 03:44 4,3 C 3,3 C 1,7 C 89 % 1024,9 hPa 0,0 l/m 0 min 0 min 0 W/m 6,4 km/h (2 Bft) 97,87 %
02.04.2021 03:46 4,3 C 3,3 C 1,7 C 90 % 1024,8 hPa 0,0 l/m 0 min 0 min 0 W/m 0,0 km/h (0 Bft) 97,87 %
02.04.2021 03:48 4,3 C 3,3 C 1,7 C 90 % 1024,8 hPa 0,0 l/m 0 min 0 min 0 W/m 6,4 km/h (2 Bft) 97,87 %
02.04.2021 03:50 4,3 C 3,3 C 1,7 C 90 % 1024,8 hPa 0,0 l/m 0 min 0 min 0 W/m 6,4 km/h (2 Bft) 95,74 %
02.04.2021 03:52 4,3 C 3,3 C 1,7 C 90 % 1024,8 hPa 0,0 l/m 0 min 0 min 0 W/m 9,7 km/h (2 Bft) 97,87 %
02.04.2021 03:54 4,2 C 3,3 C 1,7 C 90 % 1024,8 hPa 0,0 l/m 0 min 0 min 0 W/m 6,4 km/h (2 Bft) 95,65 %
02.04.2021 03:56 4,2 C 3,3 C 1,7 C 90 % 1024,9 hPa 0,0 l/m 0 min 0 min 0 W/m 6,4 km/h (2 Bft) 97,87 %
02.04.2021 03:58 4,1 C 3,3 C 1,7 C 90 % 1024,9 hPa 0,0 l/m 0 min 0 min 0 W/m 3,2 km/h (1 Bft) 95,74 %
02.04.2021 04:00 4,1 C 3,3 C 1,7 C 90 % 1024,8 hPa 0,0 l/m 0 min 0 min 0 W/m 6,4 km/h (2 Bft) 95,74 %
02.04.2021 04:02 4,1 C 3,3 C 1,7 C 90 % 1024,9 hPa 0,0 l/m 0 min 0 min 0 W/m 12,9 km/h (3 Bft) 91,43 %
02.04.2021 04:04 4,1 C 3,3 C 1,7 C 90 % 1024,9 hPa 0,0 l/m 0 min 0 min 0 W/m 9,7 km/h (2 Bft) 93,62 %
02.04.2021 04:06 4,1 C 3,3 C 1,7 C 90 % 1024,8 hPa 0,0 l/m 0 min 0 min 0 W/m 6,4 km/h (2 Bft) 97,83 %
02.04.2021 04:08 4,1 C 3,3 C 1,7 C 90 % 1024,9 hPa 0,0 l/m 0 min 0 min 0 W/m 6,4 km/h (2 Bft) 97,87 %
02.04.2021 04:10 4,0 C 3,3 C 1,1 C 90 % 1024,9 hPa 0,0 l/m 0 min 0 min 0 W/m 6,4 km/h (2 Bft) 97,87 %
02.04.2021 04:12 4,0 C 3,3 C 1,1 C 90 % 1024,9 hPa 0,0 l/m 0 min 0 min 0 W/m 9,7 km/h (2 Bft) 97,87 %
02.04.2021 04:14 4,0 C 3,3 C 1,1 C 90 % 1024,8 hPa 0,0 l/m 0 min 0 min 0 W/m 12,9 km/h (3 Bft) 97,87 %
02.04.2021 04:16 4,0 C 3,3 C 1,1 C 90 % 1024,8 hPa 0,0 l/m 0 min 0 min 0 W/m 12,9 km/h (3 Bft) 95,74 %
02.04.2021 04:18 4,0 C 3,3 C 1,1 C 90 % 1024,9 hPa 0,0 l/m 0 min 0 min 0 W/m 6,4 km/h (2 Bft) 97,83 %
02.04.2021 04:20 4,0 C 3,3 C 1,1 C 90 % 1024,9 hPa 0,0 l/m 0 min 0 min 0 W/m 6,4 km/h (2 Bft) 97,87 %
02.04.2021 04:22 4,0 C 3,3 C 1,1 C 90 % 1024,8 hPa 0,0 l/m 0 min 0 min 0 W/m 6,4 km/h (2 Bft) 95,74 %
02.04.2021 04:24 3,9 C 3,3 C 1,1 C 90 % 1024,9 hPa 0,0 l/m 0 min 0 min 0 W/m 6,4 km/h (2 Bft) 97,87 %
02.04.2021 04:26 3,9 C 3,3 C 1,1 C 90 % 1024,9 hPa 0,0 l/m 0 min 0 min 0 W/m 16,1 km/h (3 Bft) 97,87 %
02.04.2021 04:28 3,9 C 3,3 C 1,7 C 90 % 1024,9 hPa 0,0 l/m 0 min 0 min 0 W/m 6,4 km/h (2 Bft) 97,87 %
02.04.2021 04:30 3,9 C 3,3 C 1,7 C 90 % 1024,9 hPa 0,0 l/m 0 min 0 min 0 W/m 6,4 km/h (2 Bft) 97,83 %
02.04.2021 04:32 3,9 C 3,3 C 1,7 C 90 % 1024,9 hPa 0,0 l/m 0 min 0 min 0 W/m 3,2 km/h (1 Bft) 97,87 %
02.04.2021 04:34 3,9 C 3,3 C 1,7 C 90 % 1024,9 hPa 0,0 l/m 0 min 0 min 0 W/m 9,7 km/h (2 Bft) 95,74 %
02.04.2021 04:36 3,9 C 3,3 C 1,7 C 91 % 1024,9 hPa 0,0 l/m 0 min 0 min 0 W/m 3,2 km/h (1 Bft) 97,87 %
02.04.2021 04:38 3,9 C 3,3 C 1,7 C 91 % 1024,9 hPa 0,0 l/m 0 min 0 min 0 W/m 3,2 km/h (1 Bft) 97,87 %
02.04.2021 04:40 3,9 C 3,3 C 1,7 C 91 % 1024,9 hPa 0,0 l/m 0 min 0 min 0 W/m 3,2 km/h (1 Bft) 97,87 %
02.04.2021 04:42 3,9 C 3,3 C 1,7 C 91 % 1024,9 hPa 0,0 l/m 0 min 0 min 0 W/m 9,7 km/h (2 Bft) 97,83 %
02.04.2021 04:44 3,9 C 3,3 C 1,7 C 91 % 1024,9 hPa 0,0 l/m 0 min 0 min 0 W/m 6,4 km/h (2 Bft) 97,87 %
02.04.2021 04:46 3,9 C 3,3 C 1,7 C 91 % 1025,0 hPa 0,0 l/m 0 min 0 min 0 W/m 3,2 km/h (1 Bft) 97,87 %
02.04.2021 04:48 3,9 C 3,3 C 1,7 C 91 % 1024,9 hPa 0,0 l/m 0 min 0 min 0 W/m 3,2 km/h (1 Bft) 95,74 %
02.04.2021 04:50 3,9 C 3,9 C 1,7 C 91 % 1025,0 hPa 0,0 l/m 0 min 0 min 0 W/m 6,4 km/h (2 Bft) 95,74 %
02.04.2021 04:52 3,9 C 3,9 C 1,7 C 91 % 1024,9 hPa 0,0 l/m 0 min 0 min 0 W/m 6,4 km/h (2 Bft) 97,22 %
02.04.2021 04:54 3,9 C 3,9 C 1,7 C 91 % 1025,0 hPa 0,0 l/m 0 min 0 min 0 W/m 3,2 km/h (1 Bft) 93,62 %
02.04.2021 04:56 3,9 C 3,9 C 1,7 C 91 % 1025,0 hPa 0,0 l/m 0 min 0 min 0 W/m 6,4 km/h (2 Bft) 95,65 %
02.04.2021 04:58 4,0 C 3,9 C 1,7 C 91 % 1025,0 hPa 0,0 l/m 0 min 0 min 0 W/m 9,7 km/h (2 Bft) 97,87 %
02.04.2021 05:00 4,0 C 3,9 C 1,7 C 91 % 1025,0 hPa 0,0 l/m 0 min 0 min 0 W/m 6,4 km/h (2 Bft) 97,87 %
02.04.2021 05:02 4,0 C 3,9 C 1,7 C 91 % 1024,9 hPa 0,0 l/m 0 min 0 min 0 W/m 9,7 km/h (2 Bft) 100,00 %
02.04.2021 05:04 4,0 C 3,9 C 1,7 C 91 % 1024,9 hPa 0,0 l/m 0 min 0 min 0 W/m 6,4 km/h (2 Bft) 100,00 %
02.04.2021 05:06 4,0 C 3,9 C 1,7 C 91 % 1024,9 hPa 0,0 l/m 0 min 0 min 0 W/m 12,9 km/h (3 Bft) 100,00 %
02.04.2021 05:08 4,0 C 3,9 C 1,7 C 91 % 1024,9 hPa 0,0 l/m 0 min 0 min 0 W/m 3,2 km/h (1 Bft) 100,00 %
02.04.2021 05:10 4,0 C 3,9 C 1,7 C 92 % 1024,9 hPa 0,0 l/m 0 min 0 min 0 W/m 6,4 km/h (2 Bft) 95,74 %
02.04.2021 05:12 4,1 C 3,9 C 2,3 C 92 % 1024,9 hPa 0,0 l/m 0 min 0 min 0 W/m 6,4 km/h (2 Bft) 100,00 %
02.04.2021 05:14 4,1 C 3,9 C 2,3 C 92 % 1024,9 hPa 0,0 l/m 0 min 0 min 0 W/m 6,4 km/h (2 Bft) 100,00 %
02.04.2021 05:16 4,1 C 3,9 C 2,3 C 92 % 1024,8 hPa 0,0 l/m 0 min 0 min 0 W/m 6,4 km/h (2 Bft) 100,00 %
02.04.2021 05:18 4,1 C 3,9 C 2,3 C 92 % 1024,8 hPa 0,0 l/m 0 min 0 min 0 W/m 9,7 km/h (2 Bft) 98,11 %
02.04.2021 05:20 4,1 C 3,9 C 2,3 C 92 % 1024,8 hPa 0,0 l/m 0 min 0 min 0 W/m 9,7 km/h (2 Bft) 97,87 %
02.04.2021 05:22 4,2 C 3,9 C 2,3 C 92 % 1024,9 hPa 0,0 l/m 0 min 0 min 0 W/m 12,9 km/h (3 Bft) 100,00 %
02.04.2021 05:24 4,2 C 3,9 C 2,3 C 92 % 1024,8 hPa 0,0 l/m 0 min 0 min 0 W/m 9,7 km/h (2 Bft) 100,00 %
02.04.2021 05:26 4,2 C 3,9 C 2,3 C 92 % 1024,9 hPa 0,0 l/m 0 min 0 min 0 W/m 3,2 km/h (1 Bft) 100,00 %
02.04.2021 05:28 4,3 C 3,9 C 2,3 C 92 % 1024,8 hPa 0,0 l/m 0 min 0 min 0 W/m 9,7 km/h (2 Bft) 41,18 %
02.04.2021 05:30 4,3 C 3,9 C 2,3 C 92 % 1024,8 hPa 0,0 l/m 0 min 0 min 0 W/m 6,4 km/h (2 Bft) 97,83 %
02.04.2021 05:32 4,3 C 4,4 C 2,3 C 92 % 1024,9 hPa 0,0 l/m 0 min 0 min 0 W/m 6,4 km/h (2 Bft) 97,92 %
02.04.2021 05:34 4,3 C 3,9 C 2,3 C 92 % 1024,9 hPa 0,0 l/m 0 min 0 min 0 W/m 6,4 km/h (2 Bft) 95,74 %
02.04.2021 05:36 4,3 C 3,9 C 2,3 C 92 % 1024,9 hPa 0,0 l/m 0 min 0 min 0 W/m 9,7 km/h (2 Bft) 97,87 %
02.04.2021 05:38 4,3 C 3,9 C 2,3 C 92 % 1024,9 hPa 0,0 l/m 0 min 0 min 0 W/m 6,4 km/h (2 Bft) 95,74 %
02.04.2021 05:40 4,3 C 3,9 C 2,3 C 92 % 1024,9 hPa 0,0 l/m 0 min 0 min 0 W/m 9,7 km/h (2 Bft) 97,83 %
02.04.2021 05:42 4,3 C 4,4 C 2,3 C 92 % 1024,9 hPa 0,0 l/m 0 min 0 min 0 W/m 16,1 km/h (3 Bft) 95,74 %
02.04.2021 05:44 4,4 C 4,4 C 2,3 C 92 % 1024,9 hPa 0,0 l/m 0 min 0 min 0 W/m 6,4 km/h (2 Bft) 95,74 %
02.04.2021 05:46 4,4 C 4,4 C 2,3 C 92 % 1024,9 hPa 0,0 l/m 0 min 0 min 0 W/m 6,4 km/h (2 Bft) 97,87 %
02.04.2021 05:48 4,4 C 3,9 C 2,3 C 92 % 1024,8 hPa 0,0 l/m 0 min 0 min 0 W/m 9,7 km/h (2 Bft) 97,87 %
02.04.2021 05:50 4,4 C 3,9 C 2,3 C 92 % 1024,8 hPa 0,0 l/m 0 min 0 min 0 W/m 12,9 km/h (3 Bft) 97,87 %
02.04.2021 05:52 4,4 C 3,9 C 2,3 C 92 % 1024,9 hPa 0,0 l/m 0 min 0 min 0 W/m 6,4 km/h (2 Bft) 97,83 %
02.04.2021 05:54 4,4 C 3,9 C 2,3 C 92 % 1024,9 hPa 0,0 l/m 0 min 0 min 0 W/m 6,4 km/h (2 Bft) 97,87 %
02.04.2021 05:56 4,4 C 3,9 C 2,3 C 92 % 1024,9 hPa 0,0 l/m 0 min 0 min 0 W/m 9,7 km/h (2 Bft) 97,87 %
02.04.2021 05:58 4,4 C 4,4 C 2,3 C 92 % 1024,9 hPa 0,0 l/m 0 min 0 min 0 W/m 9,7 km/h (2 Bft) 97,87 %
02.04.2021 06:00 4,4 C 3,9 C 2,3 C 92 % 1024,8 hPa 0,0 l/m 0 min 0 min 0 W/m 9,7 km/h (2 Bft) 97,87 %
02.04.2021 06:02 4,4 C 3,9 C 2,3 C 91 % 1024,9 hPa 0,0 l/m 0 min 0 min 0 W/m 9,7 km/h (2 Bft) 100,00 %
02.04.2021 06:04 4,4 C 3,9 C 2,3 C 91 % 1024,9 hPa 0,0 l/m 0 min 0 min 0 W/m 16,1 km/h (3 Bft) 95,83 %
02.04.2021 06:08 4,4 C 3,9 C 2,3 C 91 % 1024,9 hPa 0,0 l/m 0 min 0 min 0 W/m 9,7 km/h (2 Bft) 97,94 %
02.04.2021 06:10 4,4 C 3,9 C 2,3 C 91 % 1024,9 hPa 0,0 l/m 0 min 0 min 0 W/m 16,1 km/h (3 Bft) 97,22 %
02.04.2021 06:12 4,4 C 3,9 C 2,3 C 91 % 1024,9 hPa 0,0 l/m 0 min 0 min 0 W/m 12,9 km/h (3 Bft) 100,00 %
02.04.2021 06:14 4,4 C 3,9 C 2,3 C 91 % 1024,9 hPa 0,0 l/m 0 min 0 min 0 W/m 12,9 km/h (3 Bft) 100,00 %
02.04.2021 06:16 4,4 C 3,9 C 2,3 C 91 % 1024,9 hPa 0,0 l/m 0 min 0 min 0 W/m 16,1 km/h (3 Bft) 100,00 %
02.04.2021 06:18 4,4 C 3,9 C 2,3 C 91 % 1024,8 hPa 0,0 l/m 0 min 0 min 0 W/m 9,7 km/h (2 Bft) 100,00 %
02.04.2021 06:20 4,4 C 3,9 C 2,3 C 91 % 1024,9 hPa 0,0 l/m 0 min 0 min 0 W/m 6,4 km/h (2 Bft) 100,00 %
02.04.2021 06:22 4,4 C 3,9 C 2,3 C 91 % 1024,8 hPa 0,0 l/m 0 min 0 min 0 W/m 3,2 km/h (1 Bft) 97,87 %
02.04.2021 06:24 4,4 C 3,9 C 2,3 C 91 % 1024,9 hPa 0,0 l/m 0 min 0 min 0 W/m 12,9 km/h (3 Bft) 100,00 %
02.04.2021 06:26 4,4 C 3,9 C 2,3 C 91 % 1024,9 hPa 0,0 l/m 0 min 0 min 0 W/m 6,4 km/h (2 Bft) 100,00 %
02.04.2021 06:28 4,4 C 3,9 C 2,3 C 91 % 1024,9 hPa 0,0 l/m 0 min 0 min 0 W/m 6,4 km/h (2 Bft) 100,00 %
02.04.2021 06:30 4,4 C 3,9 C 2,3 C 91 % 1025,0 hPa 0,0 l/m 0 min 0 min 0 W/m 9,7 km/h (2 Bft) 100,00 %
02.04.2021 06:32 4,4 C 3,9 C 2,3 C 91 % 1024,9 hPa 0,0 l/m 0 min 0 min 0 W/m 6,4 km/h (2 Bft) 95,74 %
02.04.2021 06:34 4,3 C 3,9 C 2,3 C 91 % 1025,0 hPa 0,0 l/m 0 min 0 min 0 W/m 6,4 km/h (2 Bft) 97,87 %
02.04.2021 06:36 4,3 C 3,9 C 2,3 C 91 % 1025,0 hPa 0,0 l/m 0 min 0 min 0 W/m 6,4 km/h (2 Bft) 100,00 %
02.04.2021 06:38 4,3 C 3,9 C 1,7 C 91 % 1025,0 hPa 0,0 l/m 0 min 0 min 0 W/m 9,7 km/h (2 Bft) 100,00 %
02.04.2021 06:40 4,3 C 3,9 C 1,7 C 91 % 1025,0 hPa 0,0 l/m 0 min 0 min 0 W/m 12,9 km/h (3 Bft) 100,00 %
02.04.2021 06:42 4,3 C 3,9 C 2,3 C 91 % 1025,0 hPa 0,0 l/m 0 min 0 min 0 W/m 3,2 km/h (1 Bft) 100,00 %
02.04.2021 06:44 4,3 C 3,9 C 2,3 C 91 % 1025,2 hPa 0,0 l/m 0 min 0 min 0 W/m 9,7 km/h (2 Bft) 97,87 %
02.04.2021 06:46 4,3 C 3,9 C 2,3 C 91 % 1025,2 hPa 0,0 l/m 0 min 0 min 0 W/m 6,4 km/h (2 Bft) 100,00 %
02.04.2021 06:48 4,3 C 3,9 C 2,3 C 91 % 1025,2 hPa 0,0 l/m 0 min 0 min 0 W/m 16,1 km/h (3 Bft) 97,87 %
02.04.2021 06:50 4,3 C 3,9 C 2,3 C 91 % 1025,1 hPa 0,0 l/m 0 min 0 min 0 W/m 9,7 km/h (2 Bft) 97,87 %
02.04.2021 06:52 4,3 C 3,9 C 2,3 C 91 % 1025,2 hPa 0,0 l/m 0 min 0 min 0 W/m 9,7 km/h (2 Bft) 95,74 %
02.04.2021 06:54 4,3 C 3,9 C 2,3 C 91 % 1025,2 hPa 0,0 l/m 0 min 0 min 0 W/m 9,7 km/h (2 Bft) 97,83 %
02.04.2021 06:56 4,3 C 3,9 C 2,3 C 91 % 1025,3 hPa 0,0 l/m 0 min 0 min 0 W/m 6,4 km/h (2 Bft) 97,87 %
02.04.2021 06:58 4,3 C 3,9 C 2,3 C 91 % 1025,2 hPa 0,0 l/m 0 min 0 min 0 W/m 9,7 km/h (2 Bft) 97,87 %
02.04.2021 07:00 4,2 C 3,9 C 1,7 C 91 % 1025,2 hPa 0,0 l/m 0 min 0 min 0 W/m 9,7 km/h (2 Bft) 97,87 %
02.04.2021 07:02 4,2 C 3,9 C 1,7 C 91 % 1025,2 hPa 0,0 l/m 0 min 0 min 0 W/m 9,7 km/h (2 Bft) 93,62 %
02.04.2021 07:04 4,2 C 3,9 C 1,7 C 91 % 1025,2 hPa 0,0 l/m 0 min 0 min 0 W/m 9,7 km/h (2 Bft) 97,87 %
02.04.2021 07:06 4,2 C 3,9 C 1,7 C 91 % 1025,2 hPa 0,0 l/m 0 min 0 min 0 W/m 12,9 km/h (3 Bft) 97,87 %
02.04.2021 07:08 4,2 C 3,9 C 2,3 C 91 % 1025,3 hPa 0,0 l/m 0 min 0 min 0 W/m 12,9 km/h (3 Bft) 97,87 %
02.04.2021 07:10 4,2 C 3,9 C 2,3 C 91 % 1025,3 hPa 0,0 l/m 0 min 0 min 0 W/m 6,4 km/h (2 Bft) 97,87 %
02.04.2021 07:12 4,2 C 3,9 C 1,7 C 91 % 1025,3 hPa 0,0 l/m 0 min 0 min 0 W/m 19,3 km/h (3 Bft) 95,74 %
02.04.2021 07:14 4,1 C 3,9 C 1,7 C 91 % 1025,3 hPa 0,0 l/m 0 min 0 min 0 W/m 9,7 km/h (2 Bft) 97,87 %
02.04.2021 07:16 4,1 C 3,9 C 2,3 C 91 % 1025,3 hPa 0,0 l/m 0 min 0 min 0 W/m 16,1 km/h (3 Bft) 97,83 %
02.04.2021 07:18 4,1 C 3,9 C 1,7 C 91 % 1025,3 hPa 0,0 l/m 0 min 0 min 0 W/m 19,3 km/h (3 Bft) 97,87 %
02.04.2021 07:20 4,1 C 3,9 C 1,7 C 92 % 1025,3 hPa 0,0 l/m 0 min 0 min 0 W/m 12,9 km/h (3 Bft) 97,87 %
02.04.2021 07:22 4,1 C 3,9 C 2,3 C 92 % 1025,3 hPa 0,0 l/m 0 min 0 min 1 W/m 12,9 km/h (3 Bft) 97,87 %
02.04.2021 07:24 4,1 C 3,9 C 2,3 C 92 % 1025,3 hPa 0,0 l/m 0 min 0 min 5 W/m 19,3 km/h (3 Bft) 97,87 %
02.04.2021 07:26 4,1 C 3,9 C 2,3 C 92 % 1025,3 hPa 0,0 l/m 0 min 0 min 5 W/m 9,7 km/h (2 Bft) 97,87 %
02.04.2021 07:28 4,1 C 3,9 C 2,3 C 92 % 1025,3 hPa 0,0 l/m 0 min 0 min 5 W/m 19,3 km/h (3 Bft) 95,74 %
02.04.2021 07:30 4,1 C 3,9 C 2,3 C 92 % 1025,4 hPa 0,0 l/m 0 min 0 min 5 W/m 22,5 km/h (4 Bft) 93,48 %
02.04.2021 07:32 4,1 C 3,9 C 2,3 C 92 % 1025,4 hPa 0,0 l/m 0 min 0 min 6 W/m 12,9 km/h (3 Bft) 53,33 %
02.04.2021 07:34 4,1 C 3,9 C 2,3 C 92 % 1025,4 hPa 0,0 l/m 0 min 0 min 7 W/m 9,7 km/h (2 Bft) 95,74 %
02.04.2021 07:36 4,2 C 3,9 C 2,3 C 92 % 1025,4 hPa 0,0 l/m 0 min 0 min 7 W/m 6,4 km/h (2 Bft) 95,74 %
02.04.2021 07:38 4,2 C 3,9 C 2,3 C 92 % 1025,4 hPa 0,0 l/m 0 min 0 min 7 W/m 6,4 km/h (2 Bft) 93,62 %
02.04.2021 07:40 4,2 C 3,9 C 2,3 C 92 % 1025,4 hPa 0,0 l/m 0 min 0 min 7 W/m 9,7 km/h (2 Bft) 95,74 %
02.04.2021 07:42 4,2 C 3,9 C 2,3 C 92 % 1025,5 hPa 0,0 l/m 0 min 0 min 9 W/m 19,3 km/h (3 Bft) 95,65 %
02.04.2021 07:44 4,2 C 3,9 C 2,3 C 92 % 1025,4 hPa 0,0 l/m 0 min 0 min 10 W/m 6,4 km/h (2 Bft) 93,62 %
02.04.2021 07:46 4,3 C 3,9 C 2,3 C 92 % 1025,4 hPa 0,0 l/m 0 min 0 min 10 W/m 16,1 km/h (3 Bft) 91,49 %
02.04.2021 07:48 4,3 C 3,9 C 2,3 C 92 % 1025,4 hPa 0,0 l/m 0 min 0 min 10 W/m 9,7 km/h (2 Bft) 93,62 %
02.04.2021 07:50 4,3 C 3,9 C 2,3 C 92 % 1025,4 hPa 0,0 l/m 0 min 0 min 11 W/m 9,7 km/h (2 Bft) 91,49 %
02.04.2021 07:52 4,3 C 3,9 C 2,3 C 92 % 1025,4 hPa 0,0 l/m 0 min 0 min 11 W/m 6,4 km/h (2 Bft) 91,30 %
02.04.2021 07:54 4,3 C 3,9 C 2,3 C 92 % 1025,4 hPa 0,0 l/m 0 min 0 min 12 W/m 6,4 km/h (2 Bft) 95,74 %
02.04.2021 07:56 4,3 C 3,9 C 2,3 C 92 % 1025,4 hPa 0,0 l/m 0 min 0 min 14 W/m 9,7 km/h (2 Bft) 93,62 %
02.04.2021 07:58 4,3 C 3,9 C 2,3 C 92 % 1025,5 hPa 0,0 l/m 0 min 0 min 16 W/m 9,7 km/h (2 Bft) 93,62 %
02.04.2021 08:00 4,3 C 3,9 C 2,3 C 92 % 1025,5 hPa 0,0 l/m 0 min 0 min 18 W/m 12,9 km/h (3 Bft) 93,62 %
02.04.2021 08:02 4,3 C 3,9 C 2,3 C 92 % 1025,5 hPa 0,0 l/m 0 min 0 min 16 W/m 16,1 km/h (3 Bft) 91,49 %
02.04.2021 08:04 4,3 C 3,9 C 2,3 C 92 % 1025,5 hPa 0,0 l/m 0 min 0 min 12 W/m 16,1 km/h (3 Bft) 91,49 %
02.04.2021 08:06 4,3 C 3,9 C 2,3 C 92 % 1025,6 hPa 0,0 l/m 0 min 0 min 14 W/m 9,7 km/h (2 Bft) 93,62 %
02.04.2021 08:08 4,3 C 3,9 C 2,3 C 92 % 1025,5 hPa 0,0 l/m 0 min 0 min 21 W/m 6,4 km/h (2 Bft) 91,49 %
02.04.2021 08:10 4,3 C 4,4 C 2,3 C 92 % 1025,5 hPa 0,0 l/m 0 min 0 min 23 W/m 6,4 km/h (2 Bft) 93,62 %
02.04.2021 08:12 4,4 C 4,4 C 2,3 C 92 % 1025,5 hPa 0,0 l/m 0 min 0 min 25 W/m 19,3 km/h (3 Bft) 93,62 %
02.04.2021 08:14 4,4 C 4,4 C 2,3 C 92 % 1025,5 hPa 0,0 l/m 0 min 0 min 28 W/m 12,9 km/h (3 Bft) 93,62 %
02.04.2021 08:16 4,4 C 4,4 C 2,3 C 92 % 1025,6 hPa 0,0 l/m 0 min 0 min 27 W/m 9,7 km/h (2 Bft) 93,48 %
02.04.2021 08:18 4,4 C 4,4 C 2,3 C 92 % 1025,5 hPa 0,0 l/m 0 min 0 min 29 W/m 16,1 km/h (3 Bft) 91,49 %
02.04.2021 08:20 4,4 C 4,4 C 2,3 C 92 % 1025,5 hPa 0,0 l/m 0 min 0 min 32 W/m 16,1 km/h (3 Bft) 95,74 %
02.04.2021 08:22 4,3 C 4,4 C 2,3 C 92 % 1025,5 hPa 0,0 l/m 0 min 0 min 34 W/m 12,9 km/h (3 Bft) 91,49 %
02.04.2021 08:24 4,4 C 4,4 C 2,3 C 92 % 1025,5 hPa 0,0 l/m 0 min 0 min 34 W/m 12,9 km/h (3 Bft) 95,74 %
02.04.2021 08:26 4,4 C 4,4 C 2,3 C 92 % 1025,5 hPa 0,0 l/m 0 min 0 min 34 W/m 9,7 km/h (2 Bft) 95,65 %
02.04.2021 08:28 4,4 C 4,4 C 2,3 C 92 % 1025,5 hPa 0,0 l/m 0 min 0 min 40 W/m 19,3 km/h (3 Bft) 97,87 %
02.04.2021 08:30 4,4 C 4,4 C 2,8 C 92 % 1025,5 hPa 0,0 l/m 0 min 0 min 39 W/m 12,9 km/h (3 Bft) 97,87 %
02.04.2021 08:32 4,4 C 4,4 C 2,8 C 92 % 1025,5 hPa 0,0 l/m 0 min 0 min 42 W/m 9,7 km/h (2 Bft) 97,87 %
02.04.2021 08:34 4,4 C 4,4 C 2,8 C 92 % 1025,6 hPa 0,0 l/m 0 min 0 min 49 W/m 9,7 km/h (2 Bft) 100,00 %
02.04.2021 08:36 4,5 C 4,4 C 2,8 C 92 % 1025,6 hPa 0,0 l/m 0 min 0 min 57 W/m 16,1 km/h (3 Bft) 100,00 %
02.04.2021 08:38 4,5 C 4,4 C 2,8 C 92 % 1025,6 hPa 0,0 l/m 0 min 0 min 63 W/m 19,3 km/h (3 Bft) 95,74 %
02.04.2021 08:40 4,5 C 4,4 C 2,8 C 92 % 1025,6 hPa 0,0 l/m 0 min 0 min 60 W/m 12,9 km/h (3 Bft) 100,00 %
02.04.2021 08:42 4,5 C 4,4 C 2,8 C 92 % 1025,5 hPa 0,0 l/m 0 min 0 min 64 W/m 12,9 km/h (3 Bft) 100,00 %
02.04.2021 08:44 4,5 C 4,4 C 2,8 C 92 % 1025,5 hPa 0,0 l/m 0 min 0 min 64 W/m 19,3 km/h (3 Bft) 100,00 %
02.04.2021 08:46 4,6 C 5,0 C 2,8 C 92 % 1025,6 hPa 0,0 l/m 0 min 0 min 62 W/m 16,1 km/h (3 Bft) 97,87 %
02.04.2021 08:48 4,6 C 4,4 C 2,8 C 92 % 1025,6 hPa 0,0 l/m 0 min 0 min 59 W/m 9,7 km/h (2 Bft) 97,87 %
02.04.2021 08:50 4,6 C 5,0 C 2,8 C 92 % 1025,6 hPa 0,0 l/m 0 min 0 min 66 W/m 6,4 km/h (2 Bft) 100,00 %
02.04.2021 08:52 4,6 C 5,0 C 2,8 C 92 % 1025,6 hPa 0,0 l/m 0 min 0 min 63 W/m 12,9 km/h (3 Bft) 100,00 %
02.04.2021 08:54 4,6 C 5,0 C 2,8 C 92 % 1025,6 hPa 0,0 l/m 0 min 0 min 64 W/m 6,4 km/h (2 Bft) 98,28 %
02.04.2021 08:56 4,7 C 5,0 C 3,4 C 92 % 1025,6 hPa 0,0 l/m 0 min 0 min 68 W/m 6,4 km/h (2 Bft) 100,00 %
02.04.2021 08:58 4,8 C 5,0 C 3,4 C 92 % 1025,6 hPa 0,0 l/m 0 min 0 min 73 W/m 6,4 km/h (2 Bft) 100,00 %
02.04.2021 09:00 4,8 C 5,0 C 3,4 C 92 % 1025,5 hPa 0,0 l/m 0 min 0 min 71 W/m 6,4 km/h (2 Bft) 100,00 %
02.04.2021 09:02 4,8 C 5,0 C 3,4 C 92 % 1025,6 hPa 0,0 l/m 0 min 0 min 68 W/m 9,7 km/h (2 Bft) 100,00 %
02.04.2021 09:04 4,9 C 5,0 C 3,4 C 92 % 1025,6 hPa 0,0 l/m 0 min 0 min 73 W/m 16,1 km/h (3 Bft) 97,92 %
02.04.2021 09:06 4,9 C 5,0 C 3,4 C 92 % 1025,6 hPa 0,0 l/m 0 min 0 min 64 W/m 16,1 km/h (3 Bft) 100,00 %
02.04.2021 09:08 4,9 C 5,0 C 3,4 C 92 % 1025,7 hPa 0,0 l/m 0 min 0 min 62 W/m 19,3 km/h (3 Bft) 100,00 %
02.04.2021 09:10 4,9 C 5,0 C 3,4 C 92 % 1025,7 hPa 0,0 l/m 0 min 0 min 62 W/m 19,3 km/h (3 Bft) 100,00 %
02.04.2021 09:12 4,9 C 5,0 C 3,4 C 92 % 1025,6 hPa 0,0 l/m 0 min 0 min 69 W/m 16,1 km/h (3 Bft) 97,87 %
02.04.2021 09:14 4,9 C 5,0 C 3,4 C 91 % 1025,6 hPa 0,0 l/m 0 min 0 min 64 W/m 12,9 km/h (3 Bft) 100,00 %
02.04.2021 09:16 4,9 C 5,0 C 3,4 C 91 % 1025,7 hPa 0,0 l/m 0 min 0 min 66 W/m 6,4 km/h (2 Bft) 95,74 %
02.04.2021 09:18 4,9 C 5,0 C 3,4 C 91 % 1025,7 hPa 0,0 l/m 0 min 0 min 73 W/m 6,4 km/h (2 Bft) 100,00 %
02.04.2021 09:20 4,9 C 5,0 C 3,4 C 91 % 1025,7 hPa 0,0 l/m 0 min 0 min 64 W/m 16,1 km/h (3 Bft) 100,00 %
02.04.2021 09:22 5,0 C 5,0 C 3,4 C 91 % 1025,7 hPa 0,0 l/m 0 min 0 min 65 W/m 6,4 km/h (2 Bft) 100,00 %
02.04.2021 09:24 5,0 C 5,0 C 3,4 C 91 % 1025,7 hPa 0,0 l/m 0 min 0 min 76 W/m 12,9 km/h (3 Bft) 100,00 %
02.04.2021 09:26 5,0 C 5,0 C 3,4 C 91 % 1025,8 hPa 0,0 l/m 0 min 0 min 87 W/m 9,7 km/h (2 Bft) 100,00 %
02.04.2021 09:28 5,0 C 5,0 C 3,4 C 91 % 1025,8 hPa 0,0 l/m 0 min 0 min 112 W/m 9,7 km/h (2 Bft) 100,00 %
02.04.2021 09:30 5,0 C 5,0 C 3,4 C 91 % 1025,8 hPa 0,0 l/m 0 min 0 min 120 W/m 12,9 km/h (3 Bft) 97,87 %
02.04.2021 09:32 5,0 C 5,6 C 3,4 C 91 % 1025,8 hPa 0,0 l/m 0 min 0 min 108 W/m 9,7 km/h (2 Bft) 100,00 %
02.04.2021 09:34 5,0 C 5,6 C 3,4 C 90 % 1025,9 hPa 0,0 l/m 0 min 0 min 100 W/m 6,4 km/h (2 Bft) 100,00 %
02.04.2021 09:36 5,0 C 5,6 C 3,4 C 90 % 1025,9 hPa 0,0 l/m 0 min 0 min 102 W/m 12,9 km/h (3 Bft) 100,00 %
02.04.2021 09:38 5,1 C 5,6 C 3,4 C 90 % 1025,8 hPa 0,0 l/m 0 min 0 min 100 W/m 12,9 km/h (3 Bft) 100,00 %
02.04.2021 09:40 5,1 C 5,6 C 3,4 C 90 % 1025,8 hPa 0,0 l/m 0 min 0 min 106 W/m 16,1 km/h (3 Bft) 100,00 %
02.04.2021 09:42 5,1 C 5,6 C 3,4 C 90 % 1025,8 hPa 0,0 l/m 0 min 0 min 106 W/m 12,9 km/h (3 Bft) 100,00 %
02.04.2021 09:44 5,1 C 5,6 C 3,4 C 90 % 1025,8 hPa 0,0 l/m 0 min 0 min 103 W/m 16,1 km/h (3 Bft) 100,00 %
02.04.2021 09:46 5,1 C 5,6 C 3,4 C 90 % 1025,8 hPa 0,0 l/m 0 min 0 min 102 W/m 19,3 km/h (3 Bft) 100,00 %
02.04.2021 09:48 5,1 C 5,6 C 3,4 C 90 % 1025,9 hPa 0,0 l/m 0 min 0 min 104 W/m 9,7 km/h (2 Bft) 100,00 %
02.04.2021 09:50 5,2 C 5,6 C 3,4 C 90 % 1025,9 hPa 0,0 l/m 0 min 0 min 105 W/m 22,5 km/h (4 Bft) 100,00 %
02.04.2021 09:52 5,2 C 5,6 C 3,4 C 90 % 1025,9 hPa 0,0 l/m 0 min 0 min 103 W/m 12,9 km/h (3 Bft) 100,00 %
02.04.2021 09:54 5,2 C 5,6 C 3,4 C 90 % 1025,9 hPa 0,0 l/m 0 min 0 min 97 W/m 12,9 km/h (3 Bft) 100,00 %
02.04.2021 09:56 5,2 C 5,6 C 3,4 C 90 % 1025,9 hPa 0,0 l/m 0 min 0 min 101 W/m 9,7 km/h (2 Bft) 97,87 %
02.04.2021 09:58 5,2 C 5,6 C 3,4 C 90 % 1025,9 hPa 0,0 l/m 0 min 0 min 103 W/m 12,9 km/h (3 Bft) 100,00 %
02.04.2021 10:00 5,3 C 5,6 C 3,4 C 90 % 1025,9 hPa 0,0 l/m 0 min 0 min 96 W/m 12,9 km/h (3 Bft) 100,00 %
02.04.2021 10:02 5,3 C 5,6 C 3,9 C 90 % 1025,9 hPa 0,0 l/m 0 min 0 min 95 W/m 9,7 km/h (2 Bft) 100,00 %
02.04.2021 10:04 5,3 C 5,6 C 3,9 C 90 % 1025,9 hPa 0,0 l/m 0 min 0 min 96 W/m 16,1 km/h (3 Bft) 97,87 %
02.04.2021 10:06 5,3 C 5,6 C 3,9 C 90 % 1025,9 hPa 0,0 l/m 0 min 0 min 98 W/m 16,1 km/h (3 Bft) 95,74 %
02.04.2021 10:08 5,3 C 5,6 C 3,9 C 90 % 1025,9 hPa 0,0 l/m 0 min 0 min 108 W/m 12,9 km/h (3 Bft) 95,74 %
02.04.2021 10:10 5,4 C 5,6 C 3,9 C 90 % 1025,9 hPa 0,0 l/m 0 min 0 min 125 W/m 9,7 km/h (2 Bft) 97,87 %
02.04.2021 10:12 5,4 C 5,6 C 3,9 C 89 % 1025,9 hPa 0,0 l/m 0 min 0 min 131 W/m 9,7 km/h (2 Bft) 97,14 %
02.04.2021 10:14 5,4 C 6,1 C 3,9 C 90 % 1026,0 hPa 0,0 l/m 0 min 0 min 142 W/m 3,2 km/h (1 Bft) 97,87 %
02.04.2021 10:16 5,4 C 6,1 C 3,9 C 90 % 1025,9 hPa 0,0 l/m 0 min 0 min 143 W/m 12,9 km/h (3 Bft) 97,83 %
02.04.2021 10:18 5,5 C 6,1 C 3,9 C 90 % 1026,0 hPa 0,0 l/m 0 min 0 min 140 W/m 16,1 km/h (3 Bft) 98,31 %
02.04.2021 10:20 5,5 C 6,1 C 3,9 C 89 % 1026,0 hPa 0,0 l/m 0 min 0 min 133 W/m 16,1 km/h (3 Bft) 97,14 %
02.04.2021 10:22 5,5 C 6,1 C 3,9 C 89 % 1026,0 hPa 0,0 l/m 0 min 0 min 130 W/m 12,9 km/h (3 Bft) 97,87 %
02.04.2021 10:24 5,5 C 6,1 C 3,9 C 89 % 1026,1 hPa 0,0 l/m 0 min 0 min 125 W/m 9,7 km/h (2 Bft) 98,28 %
02.04.2021 10:26 5,5 C 5,6 C 3,9 C 89 % 1026,1 hPa 0,0 l/m 0 min 0 min 125 W/m 16,1 km/h (3 Bft) 97,22 %
02.04.2021 10:28 5,5 C 6,1 C 3,9 C 89 % 1026,1 hPa 0,0 l/m 0 min 0 min 121 W/m 6,4 km/h (2 Bft) 95,65 %
02.04.2021 10:30 5,5 C 6,1 C 3,9 C 89 % 1026,1 hPa 0,0 l/m 0 min 0 min 114 W/m 6,4 km/h (2 Bft) 97,87 %
02.04.2021 10:32 5,6 C 6,1 C 3,9 C 89 % 1026,1 hPa 0,0 l/m 0 min 0 min 124 W/m 9,7 km/h (2 Bft) 97,87 %
02.04.2021 10:34 5,6 C 6,1 C 3,9 C 89 % 1026,1 hPa 0,0 l/m 0 min 0 min 135 W/m 16,1 km/h (3 Bft) 98,11 %
02.04.2021 10:36 5,6 C 6,1 C 4,5 C 89 % 1026,2 hPa 0,0 l/m 0 min 0 min 148 W/m 12,9 km/h (3 Bft) 97,87 %
02.04.2021 10:38 5,7 C 6,1 C 4,5 C 89 % 1026,2 hPa 0,0 l/m 0 min 0 min 156 W/m 9,7 km/h (2 Bft) 97,83 %
02.04.2021 10:40 5,7 C 6,7 C 4,5 C 88 % 1026,1 hPa 0,0 l/m 0 min 0 min 152 W/m 9,7 km/h (2 Bft) 93,62 %
02.04.2021 10:42 5,8 C 6,1 C 4,5 C 88 % 1026,1 hPa 0,0 l/m 0 min 0 min 147 W/m 9,7 km/h (2 Bft) 97,87 %
02.04.2021 10:44 5,8 C 6,7 C 4,5 C 88 % 1026,2 hPa 0,0 l/m 0 min 0 min 139 W/m 16,1 km/h (3 Bft) 95,74 %
02.04.2021 10:46 5,8 C 6,7 C 4,5 C 88 % 1026,2 hPa 0,0 l/m 0 min 0 min 129 W/m 16,1 km/h (3 Bft) 95,12 %
02.04.2021 10:48 5,8 C 6,1 C 4,5 C 88 % 1026,2 hPa 0,0 l/m 0 min 0 min 123 W/m 9,7 km/h (2 Bft) 96,23 %
02.04.2021 10:50 5,9 C 6,7 C 4,5 C 88 % 1026,2 hPa 0,0 l/m 0 min 0 min 114 W/m 12,9 km/h (3 Bft) 93,48 %
02.04.2021 10:52 5,9 C 6,1 C 4,5 C 88 % 1026,2 hPa 0,0 l/m 0 min 0 min 123 W/m 9,7 km/h (2 Bft) 95,74 %
02.04.2021 10:54 5,9 C 6,1 C 4,5 C 88 % 1026,2 hPa 0,0 l/m 0 min 0 min 115 W/m 16,1 km/h (3 Bft) 95,74 %
02.04.2021 10:56 5,9 C 6,1 C 3,9 C 88 % 1026,2 hPa 0,0 l/m 0 min 0 min 105 W/m 16,1 km/h (3 Bft) 97,87 %
02.04.2021 10:58 5,9 C 6,1 C 4,5 C 88 % 1026,3 hPa 0,0 l/m 0 min 0 min 117 W/m 12,9 km/h (3 Bft) 95,74 %
02.04.2021 11:00 5,9 C 6,1 C 4,5 C 88 % 1026,2 hPa 0,0 l/m 0 min 0 min 124 W/m 9,7 km/h (2 Bft) 97,87 %
02.04.2021 11:02 5,9 C 6,1 C 4,5 C 88 % 1026,2 hPa 0,0 l/m 0 min 0 min 130 W/m 12,9 km/h (3 Bft) 97,50 %
02.04.2021 11:04 5,9 C 6,7 C 4,5 C 88 % 1026,2 hPa 0,0 l/m 0 min 0 min 132 W/m 16,1 km/h (3 Bft) 97,92 %
02.04.2021 11:06 5,9 C 6,1 C 4,5 C 88 % 1026,2 hPa 0,0 l/m 0 min 0 min 124 W/m 9,7 km/h (2 Bft) 95,74 %
02.04.2021 11:08 5,9 C 6,1 C 4,5 C 88 % 1026,3 hPa 0,0 l/m 0 min 0 min 121 W/m 6,4 km/h (2 Bft) 97,87 %
02.04.2021 11:10 6,0 C 6,1 C 4,5 C 88 % 1026,3 hPa 0,0 l/m 0 min 0 min 122 W/m 6,4 km/h (2 Bft) 97,87 %
02.04.2021 11:12 6,0 C 6,1 C 4,5 C 88 % 1026,4 hPa 0,0 l/m 0 min 0 min 125 W/m 16,1 km/h (3 Bft) 95,74 %
02.04.2021 11:14 6,0 C 6,7 C 4,5 C 87 % 1026,4 hPa 0,0 l/m 0 min 0 min 122 W/m 12,9 km/h (3 Bft) 97,83 %
02.04.2021 11:16 6,0 C 6,7 C 4,5 C 87 % 1026,4 hPa 0,0 l/m 0 min 0 min 118 W/m 6,4 km/h (2 Bft) 97,87 %
02.04.2021 11:18 6,0 C 6,7 C 4,5 C 87 % 1026,4 hPa 0,0 l/m 0 min 0 min 123 W/m 22,5 km/h (4 Bft) 95,74 %
02.04.2021 11:20 6,0 C 6,7 C 4,5 C 87 % 1026,4 hPa 0,0 l/m 0 min 0 min 135 W/m 16,1 km/h (3 Bft) 95,74 %
02.04.2021 11:22 6,0 C 6,1 C 4,5 C 87 % 1026,4 hPa 0,0 l/m 0 min 0 min 139 W/m 12,9 km/h (3 Bft) 98,15 %
02.04.2021 11:24 6,0 C 6,1 C 4,5 C 87 % 1026,3 hPa 0,0 l/m 0 min 0 min 128 W/m 16,1 km/h (3 Bft) 95,65 %
02.04.2021 11:26 6,0 C 6,7 C 4,5 C 87 % 1026,3 hPa 0,0 l/m 0 min 0 min 128 W/m 9,7 km/h (2 Bft) 97,92 %
02.04.2021 11:28 6,0 C 6,7 C 4,5 C 87 % 1026,4 hPa 0,0 l/m 0 min 0 min 132 W/m 6,4 km/h (2 Bft) 97,87 %
02.04.2021 11:30 6,0 C 6,7 C 4,5 C 87 % 1026,3 hPa 0,0 l/m 0 min 0 min 141 W/m 9,7 km/h (2 Bft) 91,49 %
02.04.2021 11:32 6,0 C 6,7 C 4,5 C 87 % 1026,3 hPa 0,0 l/m 0 min 0 min 157 W/m 12,9 km/h (3 Bft) 70,83 %
02.04.2021 11:34 6,1 C 6,7 C 4,5 C 87 % 1026,3 hPa 0,0 l/m 0 min 0 min 152 W/m 12,9 km/h (3 Bft) 93,62 %
02.04.2021 11:36 6,1 C 6,7 C 4,5 C 87 % 1026,3 hPa 0,0 l/m 0 min 0 min 135 W/m 12,9 km/h (3 Bft) 89,13 %
02.04.2021 11:38 6,1 C 6,7 C 4,5 C 87 % 1026,3 hPa 0,0 l/m 0 min 0 min 126 W/m 9,7 km/h (2 Bft) 100,00 %
02.04.2021 11:40 6,1 C 6,7 C 4,5 C 87 % 1026,3 hPa 0,0 l/m 0 min 0 min 128 W/m 12,9 km/h (3 Bft) 100,00 %
02.04.2021 11:42 6,1 C 6,7 C 4,5 C 87 % 1026,3 hPa 0,0 l/m 0 min 0 min 131 W/m 16,1 km/h (3 Bft) 97,87 %
02.04.2021 11:44 6,1 C 6,7 C 4,5 C 87 % 1026,3 hPa 0,0 l/m 0 min 0 min 133 W/m 12,9 km/h (3 Bft) 95,74 %
02.04.2021 11:46 6,2 C 6,7 C 4,5 C 87 % 1026,3 hPa 0,0 l/m 0 min 0 min 131 W/m 16,1 km/h (3 Bft) 95,74 %
02.04.2021 11:48 6,2 C 6,7 C 4,5 C 87 % 1026,2 hPa 0,0 l/m 0 min 0 min 142 W/m 9,7 km/h (2 Bft) 97,83 %
02.04.2021 11:50 6,2 C 6,7 C 4,5 C 87 % 1026,3 hPa 0,0 l/m 0 min 0 min 166 W/m 16,1 km/h (3 Bft) 95,74 %
02.04.2021 11:52 6,2 C 6,7 C 4,5 C 87 % 1026,3 hPa 0,0 l/m 0 min 0 min 174 W/m 12,9 km/h (3 Bft) 97,87 %
02.04.2021 11:54 6,3 C 6,7 C 4,5 C 87 % 1026,2 hPa 0,0 l/m 0 min 0 min 187 W/m 16,1 km/h (3 Bft) 97,87 %
02.04.2021 11:56 6,3 C 7,2 C 5,0 C 87 % 1026,2 hPa 0,0 l/m 0 min 0 min 193 W/m 16,1 km/h (3 Bft) 97,87 %
02.04.2021 11:58 6,3 C 7,2 C 5,0 C 87 % 1026,1 hPa 0,0 l/m 0 min 0 min 205 W/m 12,9 km/h (3 Bft) 97,87 %
02.04.2021 12:00 6,4 C 7,2 C 5,0 C 86 % 1026,1 hPa 0,0 l/m 0 min 0 min 206 W/m 19,3 km/h (3 Bft) 97,83 %
02.04.2021 12:02 6,4 C 7,2 C 5,0 C 86 % 1026,1 hPa 0,0 l/m 0 min 0 min 241 W/m 22,5 km/h (4 Bft) 96,00 %
02.04.2021 12:04 6,4 C 7,8 C 5,6 C 86 % 1026,1 hPa 0,0 l/m 0 min 0 min 243 W/m 6,4 km/h (2 Bft) 98,00 %
02.04.2021 12:08 6,5 C 7,8 C 5,6 C 86 % 1026,2 hPa 0,0 l/m 0 min 0 min 165 W/m 19,3 km/h (3 Bft) 98,80 %
02.04.2021 12:10 6,5 C 7,8 C 5,0 C 86 % 1026,2 hPa 0,0 l/m 0 min 0 min 138 W/m 9,7 km/h (2 Bft) 96,23 %
02.04.2021 12:12 6,5 C 7,8 C 5,0 C 86 % 1026,2 hPa 0,0 l/m 0 min 0 min 144 W/m 9,7 km/h (2 Bft) 97,87 %
02.04.2021 12:14 6,6 C 7,8 C 5,0 C 85 % 1026,3 hPa 0,0 l/m 0 min 0 min 140 W/m 3,2 km/h (1 Bft) 93,62 %
02.04.2021 12:16 6,6 C 7,2 C 5,0 C 85 % 1026,2 hPa 0,0 l/m 0 min 0 min 136 W/m 12,9 km/h (3 Bft) 95,74 %
02.04.2021 12:18 6,5 C 7,2 C 5,0 C 85 % 1026,2 hPa 0,0 l/m 0 min 0 min 132 W/m 16,1 km/h (3 Bft) 96,00 %
02.04.2021 12:20 6,5 C 7,2 C 4,5 C 85 % 1026,2 hPa 0,0 l/m 0 min 0 min 129 W/m 16,1 km/h (3 Bft) 97,87 %
02.04.2021 12:22 6,5 C 6,7 C 4,5 C 85 % 1026,2 hPa 0,0 l/m 0 min 0 min 133 W/m 25,7 km/h (4 Bft) 97,30 %
02.04.2021 12:24 6,5 C 6,7 C 4,5 C 85 % 1026,2 hPa 0,0 l/m 0 min 0 min 125 W/m 22,5 km/h (4 Bft) 95,65 %
02.04.2021 12:26 6,5 C 6,7 C 4,5 C 85 % 1026,2 hPa 0,0 l/m 0 min 0 min 112 W/m 9,7 km/h (2 Bft) 93,62 %
02.04.2021 12:28 6,5 C 6,7 C 4,5 C 85 % 1026,2 hPa 0,0 l/m 0 min 0 min 114 W/m 12,9 km/h (3 Bft) 97,87 %
02.04.2021 12:30 6,5 C 6,7 C 4,5 C 85 % 1026,2 hPa 0,0 l/m 0 min 0 min 144 W/m 22,5 km/h (4 Bft) 97,87 %
02.04.2021 12:32 6,5 C 6,7 C 4,5 C 85 % 1026,2 hPa 0,0 l/m 0 min 0 min 151 W/m 16,1 km/h (3 Bft) 95,83 %
02.04.2021 12:34 6,4 C 6,7 C 4,5 C 85 % 1026,1 hPa 0,0 l/m 0 min 0 min 136 W/m 9,7 km/h (2 Bft) 97,87 %
02.04.2021 12:36 6,5 C 6,7 C 4,5 C 85 % 1026,2 hPa 0,0 l/m 0 min 0 min 107 W/m 16,1 km/h (3 Bft) 97,83 %
02.04.2021 12:38 6,5 C 6,7 C 4,5 C 85 % 1026,1 hPa 0,0 l/m 0 min 0 min 86 W/m 9,7 km/h (2 Bft) 97,87 %
02.04.2021 12:40 6,5 C 6,7 C 4,5 C 85 % 1026,1 hPa 0,0 l/m 0 min 0 min 80 W/m 19,3 km/h (3 Bft) 97,87 %
02.04.2021 12:42 6,4 C 6,7 C 4,5 C 85 % 1026,1 hPa 0,0 l/m 0 min 0 min 83 W/m 9,7 km/h (2 Bft) 95,74 %
02.04.2021 12:44 6,4 C 6,7 C 4,5 C 85 % 1026,1 hPa 0,0 l/m 0 min 0 min 91 W/m 12,9 km/h (3 Bft) 97,87 %
02.04.2021 12:46 6,4 C 6,7 C 4,5 C 85 % 1026,1 hPa 0,0 l/m 0 min 0 min 99 W/m 16,1 km/h (3 Bft) 97,87 %
02.04.2021 12:48 6,4 C 6,7 C 4,5 C 85 % 1026,1 hPa 0,0 l/m 0 min 0 min 113 W/m 12,9 km/h (3 Bft) 97,83 %
02.04.2021 12:50 6,4 C 6,7 C 4,5 C 85 % 1026,1 hPa 0,0 l/m 0 min 0 min 123 W/m 19,3 km/h (3 Bft) 95,74 %
02.04.2021 12:52 6,4 C 6,7 C 4,5 C 85 % 1026,1 hPa 0,0 l/m 0 min 0 min 128 W/m 16,1 km/h (3 Bft) 95,74 %
02.04.2021 12:54 6,4 C 6,7 C 4,5 C 85 % 1026,1 hPa 0,0 l/m 0 min 0 min 131 W/m 19,3 km/h (3 Bft) 95,74 %
02.04.2021 12:56 6,4 C 6,7 C 4,5 C 85 % 1026,1 hPa 0,0 l/m 0 min 0 min 135 W/m 19,3 km/h (3 Bft) 97,87 %
02.04.2021 12:58 6,4 C 6,7 C 4,5 C 84 % 1026,2 hPa 0,0 l/m 0 min 0 min 132 W/m 16,1 km/h (3 Bft) 97,87 %
02.04.2021 13:00 6,4 C 6,7 C 4,5 C 84 % 1026,3 hPa 0,0 l/m 0 min 0 min 128 W/m 16,1 km/h (3 Bft) 95,65 %
02.04.2021 13:02 6,4 C 6,7 C 4,5 C 84 % 1026,2 hPa 0,0 l/m 0 min 0 min 131 W/m 12,9 km/h (3 Bft) 97,87 %
02.04.2021 13:04 6,4 C 6,7 C 4,5 C 84 % 1026,2 hPa 0,0 l/m 0 min 0 min 150 W/m 12,9 km/h (3 Bft) 97,87 %
02.04.2021 13:06 6,4 C 7,2 C 5,0 C 84 % 1026,3 hPa 0,0 l/m 0 min 0 min 174 W/m 9,7 km/h (2 Bft) 95,74 %
02.04.2021 13:08 6,4 C 7,2 C 5,0 C 84 % 1026,2 hPa 0,0 l/m 0 min 0 min 166 W/m 9,7 km/h (2 Bft) 93,62 %
02.04.2021 13:10 6,4 C 7,2 C 5,0 C 84 % 1026,2 hPa 0,0 l/m 0 min 0 min 150 W/m 16,1 km/h (3 Bft) 95,65 %
02.04.2021 13:12 6,5 C 7,2 C 5,0 C 84 % 1026,2 hPa 0,0 l/m 0 min 0 min 142 W/m 12,9 km/h (3 Bft) 95,74 %
02.04.2021 13:14 6,5 C 7,2 C 5,0 C 83 % 1026,3 hPa 0,0 l/m 0 min 0 min 135 W/m 19,3 km/h (3 Bft) 95,74 %
02.04.2021 13:16 6,5 C 6,7 C 5,0 C 83 % 1026,2 hPa 0,0 l/m 0 min 0 min 128 W/m 22,5 km/h (4 Bft) 95,74 %
02.04.2021 13:18 6,5 C 7,2 C 5,0 C 83 % 1026,2 hPa 0,0 l/m 0 min 0 min 128 W/m 12,9 km/h (3 Bft) 97,87 %
02.04.2021 13:20 6,6 C 7,2 C 5,0 C 83 % 1026,2 hPa 0,0 l/m 0 min 0 min 127 W/m 16,1 km/h (3 Bft) 95,74 %
02.04.2021 13:22 6,6 C 7,2 C 5,0 C 83 % 1026,2 hPa 0,0 l/m 0 min 0 min 127 W/m 19,3 km/h (3 Bft) 97,83 %
02.04.2021 13:24 6,6 C 7,2 C 5,0 C 83 % 1026,2 hPa 0,0 l/m 0 min 0 min 126 W/m 19,3 km/h (3 Bft) 97,87 %
02.04.2021 13:26 6,6 C 7,2 C 5,0 C 83 % 1026,2 hPa 0,0 l/m 0 min 0 min 127 W/m 12,9 km/h (3 Bft) 93,62 %
02.04.2021 13:28 6,6 C 7,2 C 5,0 C 83 % 1026,1 hPa 0,0 l/m 0 min 0 min 133 W/m 16,1 km/h (3 Bft) 95,74 %
02.04.2021 13:30 6,6 C 7,2 C 5,0 C 82 % 1026,2 hPa 0,0 l/m 0 min 0 min 128 W/m 16,1 km/h (3 Bft) 93,62 %
02.04.2021 13:32 6,6 C 7,2 C 5,0 C 82 % 1026,1 hPa 0,0 l/m 0 min 0 min 122 W/m 12,9 km/h (3 Bft) 97,87 %
02.04.2021 13:34 6,6 C 7,2 C 5,0 C 82 % 1026,2 hPa 0,0 l/m 0 min 0 min 116 W/m 16,1 km/h (3 Bft) 97,87 %
02.04.2021 13:36 6,6 C 7,2 C 5,0 C 82 % 1026,2 hPa 0,0 l/m 0 min 0 min 117 W/m 16,1 km/h (3 Bft) 95,74 %
02.04.2021 13:38 6,6 C 7,2 C 5,0 C 82 % 1026,2 hPa 0,0 l/m 0 min 0 min 120 W/m 9,7 km/h (2 Bft) 95,74 %
02.04.2021 13:40 6,7 C 7,2 C 5,0 C 82 % 1026,2 hPa 0,0 l/m 0 min 0 min 117 W/m 16,1 km/h (3 Bft) 97,87 %
02.04.2021 13:42 6,6 C 7,2 C 5,0 C 82 % 1026,2 hPa 0,0 l/m 0 min 0 min 111 W/m 22,5 km/h (4 Bft) 95,74 %
02.04.2021 13:44 6,7 C 6,7 C 5,0 C 82 % 1026,3 hPa 0,0 l/m 0 min 0 min 106 W/m 22,5 km/h (4 Bft) 97,87 %
02.04.2021 13:46 6,7 C 7,2 C 5,0 C 82 % 1026,3 hPa 0,0 l/m 0 min 0 min 106 W/m 16,1 km/h (3 Bft) 98,15 %
02.04.2021 13:48 6,7 C 6,7 C 5,0 C 82 % 1026,3 hPa 0,0 l/m 0 min 0 min 109 W/m 19,3 km/h (3 Bft) 95,74 %
02.04.2021 13:50 6,7 C 6,7 C 5,0 C 82 % 1026,3 hPa 0,0 l/m 0 min 0 min 112 W/m 16,1 km/h (3 Bft) 97,87 %
02.04.2021 13:52 6,7 C 7,2 C 5,0 C 82 % 1026,3 hPa 0,0 l/m 0 min 0 min 130 W/m 22,5 km/h (4 Bft) 97,87 %
02.04.2021 13:54 6,7 C 7,2 C 5,0 C 82 % 1026,3 hPa 0,0 l/m 0 min 0 min 155 W/m 12,9 km/h (3 Bft) 97,87 %
02.04.2021 13:56 6,7 C 7,2 C 5,0 C 82 % 1026,2 hPa 0,0 l/m 0 min 0 min 175 W/m 16,1 km/h (3 Bft) 97,83 %
02.04.2021 13:58 6,7 C 7,2 C 5,0 C 81 % 1026,2 hPa 0,0 l/m 0 min 0 min 186 W/m 25,7 km/h (4 Bft) 97,87 %
02.04.2021 14:00 6,8 C 7,2 C 5,0 C 81 % 1026,1 hPa 0,0 l/m 0 min 0 min 181 W/m 16,1 km/h (3 Bft) 97,87 %
02.04.2021 14:02 6,8 C 7,8 C 5,6 C 81 % 1026,1 hPa 0,0 l/m 0 min 0 min 183 W/m 12,9 km/h (3 Bft) 97,87 %
02.04.2021 14:04 6,9 C 7,8 C 5,6 C 81 % 1026,1 hPa 0,0 l/m 0 min 0 min 191 W/m 16,1 km/h (3 Bft) 97,87 %
02.04.2021 14:06 6,9 C 7,8 C 5,6 C 81 % 1026,1 hPa 0,0 l/m 0 min 0 min 197 W/m 16,1 km/h (3 Bft) 95,74 %
02.04.2021 14:08 7,0 C 7,8 C 5,6 C 80 % 1026,1 hPa 0,0 l/m 0 min 0 min 192 W/m 19,3 km/h (3 Bft) 97,83 %
02.04.2021 14:10 7,0 C 7,8 C 5,6 C 80 % 1026,1 hPa 0,0 l/m 0 min 0 min 190 W/m 22,5 km/h (4 Bft) 97,87 %
02.04.2021 14:12 7,1 C 7,8 C 5,6 C 80 % 1025,9 hPa 0,0 l/m 0 min 0 min 212 W/m 9,7 km/h (2 Bft) 97,87 %
02.04.2021 14:14 7,1 C 7,8 C 5,6 C 79 % 1025,9 hPa 0,0 l/m 0 min 0 min 227 W/m 19,3 km/h (3 Bft) 97,87 %
02.04.2021 14:16 7,2 C 8,3 C 6,1 C 79 % 1026,0 hPa 0,0 l/m 0 min 0 min 235 W/m 16,1 km/h (3 Bft) 95,74 %
02.04.2021 14:18 7,3 C 8,3 C 6,1 C 79 % 1026,0 hPa 0,0 l/m 0 min 0 min 223 W/m 19,3 km/h (3 Bft) 97,87 %
02.04.2021 14:20 7,3 C 8,3 C 6,1 C 78 % 1026,0 hPa 0,0 l/m 0 min 0 min 229 W/m 22,5 km/h (4 Bft) 97,83 %
02.04.2021 14:22 7,4 C 8,3 C 6,1 C 78 % 1026,0 hPa 0,0 l/m 0 min 0 min 243 W/m 19,3 km/h (3 Bft) 95,74 %
02.04.2021 14:24 7,4 C 8,3 C 6,1 C 78 % 1026,0 hPa 0,0 l/m 0 min 0 min 263 W/m 25,7 km/h (4 Bft) 97,87 %
02.04.2021 14:26 7,5 C 8,3 C 6,1 C 77 % 1026,0 hPa 0,0 l/m 0 min 0 min 286 W/m 22,5 km/h (4 Bft) 95,74 %
02.04.2021 14:28 7,5 C 8,3 C 6,1 C 77 % 1026,0 hPa 0,0 l/m 0 min 0 min 263 W/m 19,3 km/h (3 Bft) 97,87 %
02.04.2021 14:30 7,6 C 8,9 C 6,1 C 77 % 1026,0 hPa 0,0 l/m 0 min 0 min 254 W/m 19,3 km/h (3 Bft) 97,83 %
02.04.2021 14:32 7,6 C 8,9 C 6,1 C 76 % 1026,0 hPa 0,0 l/m 0 min 0 min 263 W/m 19,3 km/h (3 Bft) 97,87 %
02.04.2021 14:34 7,8 C 8,9 C 6,7 C 76 % 1025,9 hPa 0,0 l/m 0 min 0 min 271 W/m 12,9 km/h (3 Bft) 97,87 %
02.04.2021 14:36 7,8 C 10,0 C 6,7 C 76 % 1025,9 hPa 0,0 l/m 0 min 0 min 312 W/m 22,5 km/h (4 Bft) 97,87 %
02.04.2021 14:38 7,9 C 11,1 C 6,7 C 75 % 1025,8 hPa 0,0 l/m 0 min 0 min 322 W/m 22,5 km/h (4 Bft) 100,00 %
02.04.2021 14:40 8,0 C 11,7 C 7,3 C 74 % 1025,8 hPa 0,0 l/m 2 min 0 min 364 W/m 16,1 km/h (3 Bft) 100,00 %
02.04.2021 14:42 8,1 C 11,7 C 7,3 C 74 % 1025,8 hPa 0,0 l/m 2 min 0 min 414 W/m 16,1 km/h (3 Bft) 100,00 %
02.04.2021 14:44 8,3 C 12,2 C 7,3 C 74 % 1025,8 hPa 0,0 l/m 2 min 0 min 443 W/m 12,9 km/h (3 Bft) 97,87 %
02.04.2021 14:46 8,5 C 12,2 C 7,8 C 74 % 1025,8 hPa 0,0 l/m 2 min 0 min 511 W/m 12,9 km/h (3 Bft) 100,00 %
02.04.2021 14:48 8,6 C 12,2 C 7,8 C 73 % 1025,8 hPa 0,0 l/m 2 min 0 min 399 W/m 25,7 km/h (4 Bft) 100,00 %
02.04.2021 14:50 8,8 C 11,7 C 7,8 C 73 % 1025,8 hPa 0,0 l/m 2 min 0 min 344 W/m 29,0 km/h (5 Bft) 100,00 %
02.04.2021 14:52 8,8 C 11,1 C 7,8 C 72 % 1025,8 hPa 0,0 l/m 2 min 0 min 333 W/m 19,3 km/h (3 Bft) 95,74 %
02.04.2021 14:54 8,8 C 10,6 C 7,8 C 72 % 1025,8 hPa 0,0 l/m 0 min 0 min 322 W/m 25,7 km/h (4 Bft) 100,00 %
02.04.2021 14:56 8,9 C 10,6 C 7,3 C 72 % 1025,8 hPa 0,0 l/m 0 min 0 min 306 W/m 22,5 km/h (4 Bft) 100,00 %
02.04.2021 14:58 8,9 C 10,6 C 7,3 C 72 % 1025,8 hPa 0,0 l/m 0 min 0 min 317 W/m 22,5 km/h (4 Bft) 100,00 %
02.04.2021 15:00 8,9 C 10,6 C 7,3 C 72 % 1025,8 hPa 0,0 l/m 2 min 0 min 343 W/m 25,7 km/h (4 Bft) 97,87 %
02.04.2021 15:02 9,0 C 11,1 C 7,3 C 71 % 1025,8 hPa 0,0 l/m 2 min 0 min 376 W/m 32,2 km/h (5 Bft) 100,00 %
02.04.2021 15:04 9,0 C 12,2 C 7,8 C 70 % 1025,7 hPa 0,0 l/m 2 min 0 min 718 W/m 22,5 km/h (4 Bft) 100,00 %
02.04.2021 15:06 9,0 C 11,7 C 7,8 C 70 % 1025,9 hPa 0,0 l/m 0 min 0 min 307 W/m 29,0 km/h (5 Bft) 100,00 %
02.04.2021 15:08 9,0 C 11,1 C 7,3 C 70 % 1025,9 hPa 0,0 l/m 0 min 0 min 263 W/m 29,0 km/h (5 Bft) 97,87 %
02.04.2021 15:10 9,0 C 10,6 C 7,3 C 70 % 1025,9 hPa 0,0 l/m 0 min 0 min 230 W/m 19,3 km/h (3 Bft) 100,00 %
02.04.2021 15:12 9,0 C 9,4 C 6,7 C 70 % 1025,9 hPa 0,0 l/m 0 min 0 min 207 W/m 32,2 km/h (5 Bft) 97,87 %
02.04.2021 15:14 8,9 C 9,4 C 6,7 C 70 % 1025,9 hPa 0,0 l/m 0 min 0 min 204 W/m 29,0 km/h (5 Bft) 100,00 %
02.04.2021 15:16 8,8 C 8,9 C 6,7 C 71 % 1026,0 hPa 0,0 l/m 0 min 0 min 266 W/m 32,2 km/h (5 Bft) 100,00 %
02.04.2021 15:18 8,6 C 9,4 C 6,7 C 71 % 1025,9 hPa 0,0 l/m 2 min 0 min 371 W/m 32,2 km/h (5 Bft) 100,00 %
02.04.2021 15:20 8,6 C 10,0 C 6,7 C 71 % 1025,9 hPa 0,0 l/m 2 min 0 min 445 W/m 32,2 km/h (5 Bft) 100,00 %
02.04.2021 15:22 8,6 C 10,0 C 6,7 C 72 % 1025,8 hPa 0,0 l/m 0 min 0 min 258 W/m 22,5 km/h (4 Bft) 100,00 %
02.04.2021 15:24 8,6 C 10,0 C 6,7 C 72 % 1025,9 hPa 0,0 l/m 0 min 0 min 233 W/m 29,0 km/h (5 Bft) 100,00 %
02.04.2021 15:26 8,6 C 9,4 C 6,7 C 72 % 1025,9 hPa 0,0 l/m 0 min 0 min 223 W/m 22,5 km/h (4 Bft) 97,87 %
02.04.2021 15:28 8,6 C 9,4 C 6,7 C 72 % 1025,9 hPa 0,0 l/m 0 min 0 min 218 W/m 25,7 km/h (4 Bft) 97,87 %
02.04.2021 15:30 8,5 C 8,9 C 6,1 C 71 % 1025,9 hPa 0,0 l/m 0 min 0 min 205 W/m 29,0 km/h (5 Bft) 97,83 %
02.04.2021 15:32 8,4 C 8,9 C 6,1 C 72 % 1025,9 hPa 0,0 l/m 0 min 0 min 200 W/m 32,2 km/h (5 Bft) 100,00 %
02.04.2021 15:34 8,4 C 8,3 C 6,1 C 72 % 1025,9 hPa 0,0 l/m 0 min 0 min 203 W/m 29,0 km/h (5 Bft) 100,00 %
02.04.2021 15:36 8,3 C 8,3 C 6,1 C 72 % 1026,0 hPa 0,0 l/m 0 min 0 min 202 W/m 19,3 km/h (3 Bft) 100,00 %
02.04.2021 15:38 8,3 C 8,3 C 6,1 C 72 % 1025,9 hPa 0,0 l/m 0 min 0 min 206 W/m 32,2 km/h (5 Bft) 100,00 %
02.04.2021 15:40 8,2 C 8,9 C 6,1 C 72 % 1025,8 hPa 0,0 l/m 0 min 0 min 217 W/m 22,5 km/h (4 Bft) 100,00 %
02.04.2021 15:42 8,2 C 8,9 C 6,1 C 72 % 1025,9 hPa 0,0 l/m 0 min 0 min 219 W/m 19,3 km/h (3 Bft) 97,83 %
02.04.2021 15:44 8,2 C 8,3 C 6,1 C 71 % 1025,9 hPa 0,0 l/m 0 min 0 min 237 W/m 22,5 km/h (4 Bft) 100,00 %
02.04.2021 15:46 8,1 C 8,9 C 6,1 C 71 % 1025,8 hPa 0,0 l/m 0 min 0 min 253 W/m 25,7 km/h (4 Bft) 100,00 %
02.04.2021 15:48 8,1 C 9,4 C 6,1 C 71 % 1025,8 hPa 0,0 l/m 0 min 0 min 247 W/m 19,3 km/h (3 Bft) 95,74 %
02.04.2021 15:50 8,1 C 9,4 C 6,7 C 71 % 1025,8 hPa 0,0 l/m 0 min 0 min 235 W/m 12,9 km/h (3 Bft) 97,87 %
02.04.2021 15:52 8,2 C 8,9 C 6,7 C 71 % 1025,8 hPa 0,0 l/m 0 min 0 min 250 W/m 25,7 km/h (4 Bft) 97,83 %
02.04.2021 15:54 8,2 C 8,9 C 6,1 C 71 % 1025,8 hPa 0,0 l/m 0 min 0 min 247 W/m 29,0 km/h (5 Bft) 97,87 %
02.04.2021 15:56 8,2 C 8,9 C 6,1 C 71 % 1025,7 hPa 0,0 l/m 0 min 0 min 239 W/m 16,1 km/h (3 Bft) 95,74 %
02.04.2021 15:58 8,3 C 8,9 C 6,7 C 71 % 1025,8 hPa 0,0 l/m 0 min 0 min 246 W/m 22,5 km/h (4 Bft) 97,87 %
02.04.2021 16:00 8,3 C 8,9 C 6,7 C 71 % 1025,7 hPa 0,0 l/m 0 min 0 min 244 W/m 19,3 km/h (3 Bft) 97,87 %
02.04.2021 16:02 8,3 C 8,9 C 6,7 C 71 % 1025,7 hPa 0,0 l/m 0 min 0 min 229 W/m 22,5 km/h (4 Bft) 97,87 %
02.04.2021 16:04 8,3 C 8,9 C 6,1 C 71 % 1025,7 hPa 0,0 l/m 0 min 0 min 213 W/m 35,4 km/h (5 Bft) 95,65 %
02.04.2021 16:06 8,3 C 8,9 C 6,1 C 71 % 1025,7 hPa 0,0 l/m 0 min 0 min 218 W/m 25,7 km/h (4 Bft) 97,87 %
02.04.2021 16:08 8,3 C 8,9 C 6,1 C 71 % 1025,7 hPa 0,0 l/m 0 min 0 min 217 W/m 16,1 km/h (3 Bft) 97,87 %
02.04.2021 16:10 8,3 C 8,9 C 6,1 C 70 % 1025,7 hPa 0,0 l/m 0 min 0 min 222 W/m 16,1 km/h (3 Bft) 97,87 %
02.04.2021 16:12 8,2 C 9,4 C 6,1 C 70 % 1025,7 hPa 0,0 l/m 0 min 0 min 258 W/m 22,5 km/h (4 Bft) 95,74 %
02.04.2021 16:14 8,3 C 10,0 C 6,1 C 71 % 1025,6 hPa 0,0 l/m 2 min 0 min 293 W/m 16,1 km/h (3 Bft) 95,74 %
02.04.2021 16:16 8,3 C 10,0 C 6,7 C 71 % 1025,6 hPa 0,0 l/m 2 min 0 min 318 W/m 19,3 km/h (3 Bft) 95,65 %
02.04.2021 16:18 8,3 C 10,0 C 6,7 C 70 % 1025,6 hPa 0,0 l/m 2 min 0 min 291 W/m 22,5 km/h (4 Bft) 93,62 %
02.04.2021 16:20 8,3 C 10,0 C 6,7 C 70 % 1025,6 hPa 0,0 l/m 0 min 0 min 254 W/m 22,5 km/h (4 Bft) 95,74 %
02.04.2021 16:22 8,3 C 9,4 C 6,7 C 69 % 1025,4 hPa 0,0 l/m 0 min 0 min 250 W/m 22,5 km/h (4 Bft) 95,74 %
02.04.2021 16:24 8,4 C 10,0 C 6,7 C 70 % 1025,4 hPa 0,0 l/m 0 min 0 min 257 W/m 12,9 km/h (3 Bft) 95,74 %
02.04.2021 16:26 8,4 C 10,0 C 6,7 C 70 % 1025,3 hPa 0,0 l/m 2 min 0 min 262 W/m 12,9 km/h (3 Bft) 95,74 %
02.04.2021 16:28 8,4 C 10,0 C 6,7 C 70 % 1025,3 hPa 0,0 l/m 2 min 0 min 277 W/m 19,3 km/h (3 Bft) 95,65 %
02.04.2021 16:30 8,5 C 10,6 C 7,3 C 70 % 1025,3 hPa 0,0 l/m 2 min 0 min 334 W/m 16,1 km/h (3 Bft) 95,74 %
02.04.2021 16:32 8,5 C 11,7 C 7,3 C 70 % 1025,3 hPa 0,0 l/m 2 min 0 min 312 W/m 12,9 km/h (3 Bft) 95,74 %
02.04.2021 16:34 8,6 C 11,7 C 7,3 C 70 % 1025,4 hPa 0,0 l/m 2 min 0 min 294 W/m 16,1 km/h (3 Bft) 95,74 %
02.04.2021 16:36 8,8 C 11,7 C 7,3 C 69 % 1025,4 hPa 0,0 l/m 2 min 0 min 313 W/m 22,5 km/h (4 Bft) 93,62 %
02.04.2021 16:38 8,8 C 11,7 C 7,3 C 69 % 1025,4 hPa 0,0 l/m 2 min 0 min 422 W/m 22,5 km/h (4 Bft) 95,74 %
02.04.2021 16:40 8,9 C 11,7 C 7,3 C 69 % 1025,4 hPa 0,0 l/m 2 min 0 min 382 W/m 25,7 km/h (4 Bft) 91,30 %
02.04.2021 16:42 8,9 C 10,6 C 7,3 C 69 % 1025,5 hPa 0,0 l/m 2 min 0 min 257 W/m 25,7 km/h (4 Bft) 93,62 %
02.04.2021 16:44 8,9 C 10,0 C 6,7 C 69 % 1025,5 hPa 0,0 l/m 0 min 0 min 214 W/m 19,3 km/h (3 Bft) 93,62 %
02.04.2021 16:46 8,9 C 10,0 C 6,7 C 69 % 1025,5 hPa 0,0 l/m 0 min 0 min 181 W/m 12,9 km/h (3 Bft) 93,62 %
02.04.2021 16:48 8,9 C 10,0 C 6,7 C 69 % 1025,4 hPa 0,0 l/m 0 min 0 min 188 W/m 12,9 km/h (3 Bft) 95,74 %
02.04.2021 16:50 8,8 C 10,0 C 6,7 C 69 % 1025,3 hPa 0,0 l/m 0 min 0 min 206 W/m 12,9 km/h (3 Bft) 93,62 %
02.04.2021 16:52 8,8 C 10,0 C 6,7 C 68 % 1025,3 hPa 0,0 l/m 0 min 0 min 227 W/m 16,1 km/h (3 Bft) 93,48 %
02.04.2021 16:54 8,8 C 10,0 C 6,7 C 68 % 1025,4 hPa 0,0 l/m 0 min 0 min 232 W/m 19,3 km/h (3 Bft) 93,62 %
02.04.2021 16:56 8,8 C 10,0 C 6,7 C 68 % 1025,4 hPa 0,0 l/m 0 min 0 min 225 W/m 25,7 km/h (4 Bft) 95,74 %
02.04.2021 16:58 8,8 C 9,4 C 6,7 C 69 % 1025,4 hPa 0,0 l/m 0 min 0 min 227 W/m 16,1 km/h (3 Bft) 93,62 %
02.04.2021 17:00 8,8 C 10,0 C 6,7 C 69 % 1025,4 hPa 0,0 l/m 0 min 0 min 226 W/m 19,3 km/h (3 Bft) 95,74 %
02.04.2021 17:02 8,8 C 9,4 C 6,7 C 69 % 1025,3 hPa 0,0 l/m 2 min 0 min 232 W/m 16,1 km/h (3 Bft) 95,74 %
02.04.2021 17:04 8,8 C 9,4 C 6,7 C 68 % 1025,5 hPa 0,0 l/m 2 min 0 min 250 W/m 22,5 km/h (4 Bft) 93,48 %
02.04.2021 17:06 8,8 C 9,4 C 6,7 C 68 % 1025,4 hPa 0,0 l/m 2 min 0 min 255 W/m 19,3 km/h (3 Bft) 91,49 %
02.04.2021 17:08 8,7 C 9,4 C 6,7 C 68 % 1025,3 hPa 0,0 l/m 2 min 0 min 248 W/m 19,3 km/h (3 Bft) 95,74 %
02.04.2021 17:10 8,7 C 10,0 C 6,7 C 69 % 1025,3 hPa 0,0 l/m 2 min 0 min 263 W/m 22,5 km/h (4 Bft) 95,74 %
02.04.2021 17:12 8,7 C 9,4 C 6,7 C 69 % 1025,3 hPa 0,0 l/m 2 min 0 min 241 W/m 32,2 km/h (5 Bft) 93,62 %
02.04.2021 17:14 8,7 C 9,4 C 6,7 C 69 % 1025,3 hPa 0,0 l/m 2 min 0 min 232 W/m 29,0 km/h (5 Bft) 97,87 %
02.04.2021 17:16 8,7 C 10,0 C 6,7 C 68 % 1025,2 hPa 0,0 l/m 2 min 0 min 216 W/m 19,3 km/h (3 Bft) 97,14 %
02.04.2021 17:18 8,7 C 10,0 C 6,1 C 68 % 1025,2 hPa 0,0 l/m 2 min 0 min 210 W/m 19,3 km/h (3 Bft) 94,83 %
02.04.2021 17:20 8,6 C 10,0 C 6,1 C 68 % 1025,2 hPa 0,0 l/m 0 min 0 min 190 W/m 25,7 km/h (4 Bft) 97,87 %
02.04.2021 17:22 8,6 C 9,4 C 6,1 C 68 % 1025,3 hPa 0,0 l/m 0 min 0 min 182 W/m 29,0 km/h (5 Bft) 94,29 %
02.04.2021 17:24 8,6 C 9,4 C 6,1 C 68 % 1025,1 hPa 0,0 l/m 0 min 0 min 171 W/m 19,3 km/h (3 Bft) 95,74 %
02.04.2021 17:26 8,5 C 9,4 C 6,1 C 68 % 1025,1 hPa 0,0 l/m 0 min 0 min 173 W/m 22,5 km/h (4 Bft) 95,83 %
02.04.2021 17:28 8,5 C 9,4 C 6,1 C 68 % 1025,1 hPa 0,0 l/m 0 min 0 min 182 W/m 16,1 km/h (3 Bft) 100,00 %
02.04.2021 17:30 8,5 C 10,6 C 6,1 C 69 % 1025,1 hPa 0,0 l/m 2 min 0 min 222 W/m 12,9 km/h (3 Bft) 93,62 %
02.04.2021 17:32 8,6 C 10,6 C 6,1 C 70 % 1025,2 hPa 0,0 l/m 2 min 0 min 312 W/m 16,1 km/h (3 Bft) 97,83 %
02.04.2021 17:34 8,6 C 10,6 C 6,1 C 69 % 1025,2 hPa 0,0 l/m 2 min 0 min 230 W/m 22,5 km/h (4 Bft) 97,87 %
02.04.2021 17:36 8,6 C 10,0 C 6,1 C 69 % 1025,2 hPa 0,0 l/m 0 min 0 min 189 W/m 16,1 km/h (3 Bft) 95,74 %
02.04.2021 17:38 8,6 C 9,4 C 6,1 C 69 % 1025,3 hPa 0,0 l/m 0 min 0 min 179 W/m 19,3 km/h (3 Bft) 100,00 %
02.04.2021 17:40 8,6 C 9,4 C 6,1 C 69 % 1025,4 hPa 0,0 l/m 0 min 0 min 163 W/m 38,6 km/h (5 Bft) 100,00 %
02.04.2021 17:42 8,5 C 8,9 C 6,1 C 69 % 1025,4 hPa 0,0 l/m 0 min 0 min 136 W/m 29,0 km/h (5 Bft) 100,00 %
02.04.2021 17:44 8,5 C 8,3 C 6,1 C 69 % 1025,4 hPa 0,0 l/m 0 min 0 min 110 W/m 22,5 km/h (4 Bft) 97,83 %
02.04.2021 17:46 8,5 C 8,3 C 6,1 C 70 % 1025,3 hPa 0,0 l/m 0 min 0 min 94 W/m 22,5 km/h (4 Bft) 100,00 %
02.04.2021 17:48 8,4 C 8,3 C 5,6 C 70 % 1025,3 hPa 0,0 l/m 0 min 0 min 90 W/m 22,5 km/h (4 Bft) 100,00 %
02.04.2021 17:50 8,4 C 8,3 C 5,6 C 70 % 1025,3 hPa 0,0 l/m 0 min 0 min 84 W/m 19,3 km/h (3 Bft) 100,00 %
02.04.2021 17:52 8,3 C 8,3 C 5,6 C 71 % 1025,3 hPa 0,0 l/m 0 min 0 min 79 W/m 22,5 km/h (4 Bft) 100,00 %
02.04.2021 17:54 8,3 C 8,3 C 5,6 C 71 % 1025,2 hPa 0,0 l/m 0 min 0 min 76 W/m 19,3 km/h (3 Bft) 100,00 %
02.04.2021 17:56 8,3 C 7,8 C 5,6 C 71 % 1025,2 hPa 0,0 l/m 0 min 0 min 72 W/m 12,9 km/h (3 Bft) 97,87 %
02.04.2021 17:58 8,1 C 7,8 C 5,6 C 71 % 1025,3 hPa 0,0 l/m 0 min 0 min 68 W/m 22,5 km/h (4 Bft) 100,00 %
02.04.2021 18:00 8,1 C 7,8 C 5,6 C 71 % 1025,3 hPa 0,0 l/m 0 min 0 min 64 W/m 22,5 km/h (4 Bft) 100,00 %
02.04.2021 18:02 8,1 C 7,8 C 5,0 C 72 % 1025,3 hPa 0,0 l/m 0 min 0 min 59 W/m 25,7 km/h (4 Bft) 100,00 %
02.04.2021 18:04 8,0 C 7,8 C 5,0 C 72 % 1025,4 hPa 0,0 l/m 0 min 0 min 53 W/m 25,7 km/h (4 Bft) 100,00 %
02.04.2021 18:08 8,0 C 7,2 C 5,0 C 73 % 1025,5 hPa 0,0 l/m 0 min 0 min 43 W/m 29,0 km/h (5 Bft) 100,00 %
02.04.2021 18:10 7,9 C 7,2 C 5,0 C 73 % 1025,6 hPa 0,0 l/m 0 min 0 min 38 W/m 16,1 km/h (3 Bft) 100,00 %
02.04.2021 18:12 7,9 C 7,2 C 5,0 C 73 % 1025,6 hPa 0,0 l/m 0 min 0 min 36 W/m 25,7 km/h (4 Bft) 100,00 %
02.04.2021 18:14 7,8 C 7,2 C 5,0 C 74 % 1025,6 hPa 0,0 l/m 0 min 0 min 32 W/m 19,3 km/h (3 Bft) 97,87 %
02.04.2021 18:16 7,8 C 7,2 C 5,0 C 74 % 1025,6 hPa 0,0 l/m 0 min 0 min 30 W/m 29,0 km/h (5 Bft) 100,00 %
02.04.2021 18:18 7,7 C 7,2 C 5,0 C 74 % 1025,6 hPa 0,0 l/m 0 min 0 min 28 W/m 22,5 km/h (4 Bft) 100,00 %
02.04.2021 18:20 7,7 C 7,2 C 4,5 C 74 % 1025,6 hPa 0,0 l/m 0 min 0 min 30 W/m 22,5 km/h (4 Bft) 100,00 %
02.04.2021 18:22 7,6 C 7,2 C 5,0 C 74 % 1025,5 hPa 0,0 l/m 0 min 0 min 28 W/m 12,9 km/h (3 Bft) 100,00 %
02.04.2021 18:24 7,6 C 7,2 C 4,5 C 74 % 1025,5 hPa 0,0 l/m 0 min 0 min 26 W/m 22,5 km/h (4 Bft) 100,00 %
02.04.2021 18:26 7,6 C 7,2 C 4,5 C 75 % 1025,6 hPa 0,0 l/m 0 min 0 min 29 W/m 22,5 km/h (4 Bft) 97,87 %
02.04.2021 18:28 7,5 C 7,2 C 4,5 C 75 % 1025,5 hPa 0,0 l/m 0 min 0 min 30 W/m 22,5 km/h (4 Bft) 100,00 %
02.04.2021 18:30 7,5 C 7,2 C 4,5 C 75 % 1025,6 hPa 0,0 l/m 0 min 0 min 28 W/m 25,7 km/h (4 Bft) 100,00 %
02.04.2021 18:32 7,5 C 7,2 C 4,5 C 75 % 1025,6 hPa 0,0 l/m 0 min 0 min 28 W/m 22,5 km/h (4 Bft) 100,00 %
02.04.2021 18:34 7,5 C 7,2 C 4,5 C 75 % 1025,5 hPa 0,0 l/m 0 min 0 min 32 W/m 22,5 km/h (4 Bft) 100,00 %
02.04.2021 18:36 7,5 C 7,2 C 4,5 C 75 % 1025,5 hPa 0,0 l/m 0 min 0 min 39 W/m 22,5 km/h (4 Bft) 100,00 %
02.04.2021 18:38 7,5 C 7,2 C 4,5 C 76 % 1025,5 hPa 0,0 l/m 0 min 0 min 39 W/m 22,5 km/h (4 Bft) 100,00 %
02.04.2021 18:40 7,5 C 7,2 C 4,5 C 76 % 1025,4 hPa 0,0 l/m 0 min 0 min 38 W/m 19,3 km/h (3 Bft) 100,00 %
02.04.2021 18:42 7,5 C 7,2 C 4,5 C 76 % 1025,4 hPa 0,0 l/m 0 min 0 min 35 W/m 29,0 km/h (5 Bft) 100,00 %
02.04.2021 18:44 7,4 C 7,2 C 4,5 C 76 % 1025,4 hPa 0,0 l/m 0 min 0 min 32 W/m 22,5 km/h (4 Bft) 100,00 %
02.04.2021 18:46 7,4 C 7,2 C 4,5 C 76 % 1025,4 hPa 0,0 l/m 0 min 0 min 32 W/m 25,7 km/h (4 Bft) 97,87 %
02.04.2021 18:48 7,4 C 7,2 C 4,5 C 76 % 1025,3 hPa 0,0 l/m 0 min 0 min 30 W/m 16,1 km/h (3 Bft) 100,00 %
02.04.2021 18:50 7,4 C 7,2 C 4,5 C 76 % 1025,4 hPa 0,0 l/m 0 min 0 min 28 W/m 25,7 km/h (4 Bft) 97,87 %
02.04.2021 18:52 7,4 C 7,2 C 4,5 C 76 % 1025,4 hPa 0,0 l/m 0 min 0 min 25 W/m 22,5 km/h (4 Bft) 100,00 %
02.04.2021 18:54 7,4 C 6,7 C 4,5 C 76 % 1025,4 hPa 0,0 l/m 0 min 0 min 23 W/m 25,7 km/h (4 Bft) 100,00 %
02.04.2021 18:56 7,4 C 6,7 C 4,5 C 76 % 1025,5 hPa 0,0 l/m 0 min 0 min 23 W/m 16,1 km/h (3 Bft) 100,00 %
02.04.2021 18:58 7,4 C 6,7 C 4,5 C 76 % 1025,5 hPa 0,0 l/m 0 min 0 min 25 W/m 16,1 km/h (3 Bft) 97,87 %
02.04.2021 19:00 7,4 C 7,2 C 4,5 C 76 % 1025,5 hPa 0,0 l/m 0 min 0 min 25 W/m 19,3 km/h (3 Bft) 97,87 %
02.04.2021 19:02 7,4 C 7,2 C 4,5 C 76 % 1025,5 hPa 0,0 l/m 0 min 0 min 26 W/m 22,5 km/h (4 Bft) 100,00 %
02.04.2021 19:04 7,4 C 6,7 C 4,5 C 76 % 1025,5 hPa 0,0 l/m 0 min 0 min 25 W/m 19,3 km/h (3 Bft) 97,83 %
02.04.2021 19:06 7,4 C 6,7 C 4,5 C 76 % 1025,6 hPa 0,0 l/m 0 min 0 min 22 W/m 22,5 km/h (4 Bft) 100,00 %
02.04.2021 19:08 7,3 C 6,7 C 4,5 C 76 % 1025,5 hPa 0,0 l/m 0 min 0 min 22 W/m 22,5 km/h (4 Bft) 100,00 %
02.04.2021 19:10 7,3 C 6,7 C 4,5 C 76 % 1025,4 hPa 0,0 l/m 0 min 0 min 25 W/m 29,0 km/h (5 Bft) 97,87 %
02.04.2021 19:12 7,3 C 6,7 C 4,5 C 76 % 1025,4 hPa 0,0 l/m 0 min 0 min 26 W/m 29,0 km/h (5 Bft) 100,00 %
02.04.2021 19:14 7,3 C 6,7 C 4,5 C 76 % 1025,5 hPa 0,0 l/m 0 min 0 min 25 W/m 19,3 km/h (3 Bft) 100,00 %
02.04.2021 19:16 7,3 C 6,7 C 4,5 C 76 % 1025,5 hPa 0,0 l/m 0 min 0 min 22 W/m 22,5 km/h (4 Bft) 100,00 %
02.04.2021 19:18 7,2 C 6,7 C 4,5 C 75 % 1025,5 hPa 0,0 l/m 0 min 0 min 19 W/m 25,7 km/h (4 Bft) 97,87 %
02.04.2021 19:20 7,2 C 6,7 C 4,5 C 75 % 1025,5 hPa 0,0 l/m 0 min 0 min 18 W/m 22,5 km/h (4 Bft) 97,87 %
02.04.2021 19:22 7,2 C 6,7 C 4,5 C 75 % 1025,5 hPa 0,0 l/m 0 min 0 min 18 W/m 22,5 km/h (4 Bft) 95,74 %
02.04.2021 19:24 7,2 C 6,7 C 4,5 C 75 % 1025,5 hPa 0,0 l/m 0 min 0 min 17 W/m 25,7 km/h (4 Bft) 97,87 %
02.04.2021 19:26 7,2 C 6,7 C 4,5 C 75 % 1025,4 hPa 0,0 l/m 0 min 0 min 16 W/m 19,3 km/h (3 Bft) 97,87 %
02.04.2021 19:28 7,2 C 6,7 C 4,5 C 75 % 1025,5 hPa 0,0 l/m 0 min 0 min 16 W/m 35,4 km/h (5 Bft) 95,65 %
02.04.2021 19:30 7,2 C 6,7 C 4,5 C 75 % 1025,5 hPa 0,0 l/m 0 min 0 min 16 W/m 22,5 km/h (4 Bft) 97,87 %
02.04.2021 19:32 7,2 C 6,7 C 4,5 C 75 % 1025,5 hPa 0,0 l/m 0 min 0 min 15 W/m 19,3 km/h (3 Bft) 97,87 %
02.04.2021 19:34 7,2 C 6,7 C 4,5 C 75 % 1025,5 hPa 0,0 l/m 0 min 0 min 14 W/m 12,9 km/h (3 Bft) 97,87 %
02.04.2021 19:36 7,2 C 6,7 C 4,5 C 75 % 1025,5 hPa 0,0 l/m 0 min 0 min 12 W/m 22,5 km/h (4 Bft) 97,87 %
02.04.2021 19:38 7,2 C 6,7 C 4,5 C 75 % 1025,4 hPa 0,0 l/m 0 min 0 min 12 W/m 12,9 km/h (3 Bft) 97,87 %
02.04.2021 19:40 7,2 C 6,7 C 4,5 C 75 % 1025,5 hPa 0,0 l/m 0 min 0 min 12 W/m 12,9 km/h (3 Bft) 97,83 %
02.04.2021 19:42 7,2 C 6,7 C 4,5 C 76 % 1025,5 hPa 0,0 l/m 0 min 0 min 12 W/m 12,9 km/h (3 Bft) 97,87 %
02.04.2021 19:44 7,2 C 6,7 C 4,5 C 76 % 1025,5 hPa 0,0 l/m 0 min 0 min 11 W/m 25,7 km/h (4 Bft) 97,87 %
02.04.2021 19:46 7,2 C 6,7 C 4,5 C 75 % 1025,4 hPa 0,0 l/m 0 min 0 min 11 W/m 9,7 km/h (2 Bft) 97,87 %
02.04.2021 19:48 7,1 C 6,7 C 4,5 C 75 % 1025,5 hPa 0,0 l/m 0 min 0 min 10 W/m 19,3 km/h (3 Bft) 97,87 %
02.04.2021 19:50 7,1 C 6,7 C 4,5 C 75 % 1025,5 hPa 0,0 l/m 0 min 0 min 8 W/m 22,5 km/h (4 Bft) 95,74 %
02.04.2021 19:52 7,1 C 6,7 C 4,5 C 76 % 1025,4 hPa 0,0 l/m 0 min 0 min 7 W/m 16,1 km/h (3 Bft) 97,83 %
02.04.2021 19:54 7,1 C 6,7 C 4,5 C 76 % 1025,4 hPa 0,0 l/m 0 min 0 min 6 W/m 16,1 km/h (3 Bft) 93,62 %
02.04.2021 19:56 7,1 C 6,7 C 4,5 C 75 % 1025,5 hPa 0,0 l/m 0 min 0 min 5 W/m 19,3 km/h (3 Bft) 91,49 %
02.04.2021 19:58 7,1 C 6,7 C 4,5 C 75 % 1025,4 hPa 0,0 l/m 0 min 0 min 2 W/m 9,7 km/h (2 Bft) 93,62 %
02.04.2021 20:00 7,1 C 6,7 C 4,5 C 76 % 1025,4 hPa 0,0 l/m 0 min 0 min 0 W/m 22,5 km/h (4 Bft) 95,74 %
02.04.2021 20:02 7,1 C 6,7 C 4,5 C 76 % 1025,5 hPa 0,0 l/m 0 min 0 min 0 W/m 16,1 km/h (3 Bft) 95,83 %
02.04.2021 20:04 7,1 C 6,7 C 4,5 C 76 % 1025,5 hPa 0,0 l/m 0 min 0 min 0 W/m 19,3 km/h (3 Bft) 97,83 %
02.04.2021 20:06 7,1 C 6,7 C 3,9 C 76 % 1025,6 hPa 0,0 l/m 0 min 0 min 0 W/m 12,9 km/h (3 Bft) 93,62 %
02.04.2021 20:08 7,1 C 6,7 C 4,5 C 76 % 1025,6 hPa 0,0 l/m 0 min 0 min 0 W/m 12,9 km/h (3 Bft) 95,74 %
02.04.2021 20:10 7,1 C 6,7 C 4,5 C 76 % 1025,6 hPa 0,0 l/m 0 min 0 min 0 W/m 9,7 km/h (2 Bft) 95,74 %
02.04.2021 20:12 7,0 C 6,7 C 3,9 C 76 % 1025,7 hPa 0,0 l/m 0 min 0 min 0 W/m 29,0 km/h (5 Bft) 94,00 %
02.04.2021 20:14 7,0 C 6,7 C 4,5 C 76 % 1025,6 hPa 0,0 l/m 0 min 0 min 0 W/m 25,7 km/h (4 Bft) 97,14 %
02.04.2021 20:16 7,0 C 6,7 C 3,9 C 76 % 1025,5 hPa 0,0 l/m 0 min 0 min 0 W/m 16,1 km/h (3 Bft) 93,62 %
02.04.2021 20:18 7,0 C 6,7 C 3,9 C 76 % 1025,5 hPa 0,0 l/m 0 min 0 min 0 W/m 6,4 km/h (2 Bft) 96,36 %
02.04.2021 20:20 7,0 C 6,7 C 3,9 C 76 % 1025,7 hPa 0,0 l/m 0 min 0 min 0 W/m 12,9 km/h (3 Bft) 96,00 %
02.04.2021 20:22 7,0 C 6,7 C 3,9 C 76 % 1025,6 hPa 0,0 l/m 0 min 0 min 0 W/m 22,5 km/h (4 Bft) 95,74 %
02.04.2021 20:24 7,0 C 6,7 C 3,9 C 76 % 1025,6 hPa 0,0 l/m 0 min 0 min 0 W/m 22,5 km/h (4 Bft) 95,74 %
02.04.2021 20:26 7,0 C 6,1 C 3,9 C 76 % 1025,6 hPa 0,0 l/m 0 min 0 min 0 W/m 12,9 km/h (3 Bft) 95,65 %
02.04.2021 20:28 7,0 C 6,1 C 3,9 C 76 % 1025,5 hPa 0,0 l/m 0 min 0 min 0 W/m 25,7 km/h (4 Bft) 93,62 %
02.04.2021 20:30 7,0 C 6,1 C 3,9 C 76 % 1025,6 hPa 0,0 l/m 0 min 0 min 0 W/m 19,3 km/h (3 Bft) 95,74 %
02.04.2021 20:32 7,0 C 6,1 C 3,9 C 75 % 1025,6 hPa 0,0 l/m 0 min 0 min 0 W/m 16,1 km/h (3 Bft) 95,74 %
02.04.2021 20:34 7,0 C 6,7 C 3,9 C 75 % 1025,6 hPa 0,0 l/m 0 min 0 min 0 W/m 25,7 km/h (4 Bft) 95,74 %
02.04.2021 20:36 6,9 C 6,1 C 3,9 C 74 % 1025,6 hPa 0,0 l/m 0 min 0 min 0 W/m 9,7 km/h (2 Bft) 95,74 %
02.04.2021 20:38 6,9 C 6,1 C 3,9 C 74 % 1025,6 hPa 0,0 l/m 0 min 0 min 0 W/m 22,5 km/h (4 Bft) 91,84 %
02.04.2021 20:40 6,9 C 6,7 C 3,9 C 74 % 1025,6 hPa 0,0 l/m 0 min 0 min 0 W/m 16,1 km/h (3 Bft) 95,74 %
02.04.2021 20:42 6,9 C 6,7 C 3,9 C 74 % 1025,6 hPa 0,0 l/m 0 min 0 min 0 W/m 16,1 km/h (3 Bft) 95,74 %
02.04.2021 20:44 6,9 C 6,7 C 3,9 C 74 % 1025,6 hPa 0,0 l/m 0 min 0 min 0 W/m 19,3 km/h (3 Bft) 95,74 %
02.04.2021 20:46 6,9 C 6,7 C 3,9 C 74 % 1025,6 hPa 0,0 l/m 0 min 0 min 0 W/m 25,7 km/h (4 Bft) 97,87 %
02.04.2021 20:48 6,9 C 6,7 C 3,9 C 73 % 1025,6 hPa 0,0 l/m 0 min 0 min 0 W/m 25,7 km/h (4 Bft) 93,48 %
02.04.2021 20:50 6,9 C 6,7 C 3,9 C 73 % 1025,6 hPa 0,0 l/m 0 min 0 min 0 W/m 19,3 km/h (3 Bft) 97,87 %
02.04.2021 20:52 6,9 C 6,1 C 3,9 C 73 % 1025,6 hPa 0,0 l/m 0 min 0 min 0 W/m 32,2 km/h (5 Bft) 95,74 %
02.04.2021 20:54 6,9 C 6,1 C 3,9 C 73 % 1025,7 hPa 0,0 l/m 0 min 0 min 0 W/m 19,3 km/h (3 Bft) 97,87 %
02.04.2021 20:56 6,9 C 6,1 C 3,9 C 73 % 1025,7 hPa 0,0 l/m 0 min 0 min 0 W/m 12,9 km/h (3 Bft) 97,87 %
02.04.2021 20:58 6,9 C 6,1 C 3,9 C 73 % 1025,7 hPa 0,0 l/m 0 min 0 min 0 W/m 16,1 km/h (3 Bft) 97,87 %
02.04.2021 21:00 6,9 C 6,1 C 3,9 C 73 % 1025,7 hPa 0,0 l/m 0 min 0 min 0 W/m 16,1 km/h (3 Bft) 97,83 %
02.04.2021 21:02 6,9 C 6,1 C 3,9 C 73 % 1025,8 hPa 0,0 l/m 0 min 0 min 0 W/m 19,3 km/h (3 Bft) 95,74 %
02.04.2021 21:04 6,9 C 6,1 C 3,9 C 73 % 1025,8 hPa 0,0 l/m 0 min 0 min 0 W/m 16,1 km/h (3 Bft) 97,87 %
02.04.2021 21:06 6,9 C 6,1 C 3,9 C 73 % 1025,8 hPa 0,0 l/m 0 min 0 min 0 W/m 22,5 km/h (4 Bft) 97,87 %
02.04.2021 21:08 6,9 C 6,1 C 3,9 C 73 % 1025,8 hPa 0,0 l/m 0 min 0 min 0 W/m 25,7 km/h (4 Bft) 95,74 %
02.04.2021 21:10 6,9 C 6,1 C 3,9 C 73 % 1025,8 hPa 0,0 l/m 0 min 0 min 0 W/m 25,7 km/h (4 Bft) 97,87 %
02.04.2021 21:12 6,9 C 6,1 C 3,9 C 73 % 1025,9 hPa 0,0 l/m 0 min 0 min 0 W/m 22,5 km/h (4 Bft) 97,83 %
02.04.2021 21:14 6,9 C 6,1 C 3,9 C 73 % 1025,8 hPa 0,0 l/m 0 min 0 min 0 W/m 16,1 km/h (3 Bft) 97,87 %
02.04.2021 21:16 6,9 C 6,1 C 3,9 C 73 % 1025,8 hPa 0,0 l/m 0 min 0 min 0 W/m 22,5 km/h (4 Bft) 97,87 %
02.04.2021 21:18 6,9 C 6,1 C 3,9 C 73 % 1025,8 hPa 0,0 l/m 0 min 0 min 0 W/m 22,5 km/h (4 Bft) 100,00 %
02.04.2021 21:20 6,9 C 6,1 C 3,9 C 73 % 1025,9 hPa 0,0 l/m 0 min 0 min 0 W/m 16,1 km/h (3 Bft) 100,00 %
02.04.2021 21:22 6,9 C 6,1 C 3,9 C 73 % 1025,8 hPa 0,0 l/m 0 min 0 min 0 W/m 16,1 km/h (3 Bft) 100,00 %
02.04.2021 21:24 6,9 C 6,1 C 3,9 C 73 % 1025,9 hPa 0,0 l/m 0 min 0 min 0 W/m 19,3 km/h (3 Bft) 100,00 %
02.04.2021 21:26 6,9 C 6,1 C 3,9 C 73 % 1025,9 hPa 0,0 l/m 0 min 0 min 0 W/m 22,5 km/h (4 Bft) 100,00 %
02.04.2021 21:28 6,9 C 6,1 C 3,9 C 73 % 1025,8 hPa 0,0 l/m 0 min 0 min 0 W/m 22,5 km/h (4 Bft) 100,00 %
02.04.2021 21:30 6,9 C 6,1 C 3,9 C 73 % 1025,8 hPa 0,0 l/m 0 min 0 min 0 W/m 9,7 km/h (2 Bft) 100,00 %
02.04.2021 21:32 6,9 C 6,1 C 3,9 C 74 % 1025,8 hPa 0,0 l/m 0 min 0 min 0 W/m 12,9 km/h (3 Bft) 100,00 %
02.04.2021 21:34 6,9 C 6,1 C 3,9 C 74 % 1025,8 hPa 0,0 l/m 0 min 0 min 0 W/m 6,4 km/h (2 Bft) 100,00 %
02.04.2021 21:36 6,9 C 6,1 C 3,9 C 74 % 1025,7 hPa 0,0 l/m 0 min 0 min 0 W/m 12,9 km/h (3 Bft) 97,83 %
02.04.2021 21:38 6,9 C 6,1 C 3,9 C 74 % 1025,7 hPa 0,0 l/m 0 min 0 min 0 W/m 12,9 km/h (3 Bft) 97,87 %
02.04.2021 21:40 6,9 C 6,1 C 3,9 C 74 % 1025,7 hPa 0,0 l/m 0 min 0 min 0 W/m 12,9 km/h (3 Bft) 100,00 %
02.04.2021 21:42 6,9 C 6,1 C 3,9 C 74 % 1025,7 hPa 0,0 l/m 0 min 0 min 0 W/m 9,7 km/h (2 Bft) 100,00 %
02.04.2021 21:44 6,9 C 6,1 C 3,9 C 74 % 1025,8 hPa 0,0 l/m 0 min 0 min 0 W/m 16,1 km/h (3 Bft) 97,87 %
02.04.2021 21:46 6,9 C 6,1 C 3,9 C 74 % 1025,7 hPa 0,0 l/m 0 min 0 min 0 W/m 9,7 km/h (2 Bft) 97,87 %
02.04.2021 21:48 6,9 C 6,1 C 3,9 C 74 % 1025,7 hPa 0,0 l/m 0 min 0 min 0 W/m 9,7 km/h (2 Bft) 100,00 %
02.04.2021 21:50 6,9 C 6,1 C 3,9 C 73 % 1025,7 hPa 0,0 l/m 0 min 0 min 0 W/m 9,7 km/h (2 Bft) 98,28 %
02.04.2021 21:52 6,9 C 6,1 C 3,9 C 74 % 1025,7 hPa 0,0 l/m 0 min 0 min 0 W/m 16,1 km/h (3 Bft) 97,87 %
02.04.2021 21:54 6,9 C 6,1 C 3,9 C 73 % 1025,7 hPa 0,0 l/m 0 min 0 min 0 W/m 19,3 km/h (3 Bft) 95,74 %
02.04.2021 21:56 6,9 C 6,1 C 3,9 C 73 % 1025,7 hPa 0,0 l/m 0 min 0 min 0 W/m 12,9 km/h (3 Bft) 97,14 %
02.04.2021 21:58 6,9 C 6,1 C 3,9 C 73 % 1025,7 hPa 0,0 l/m 0 min 0 min 0 W/m 9,7 km/h (2 Bft) 95,74 %
02.04.2021 22:00 6,9 C 6,1 C 3,9 C 73 % 1025,7 hPa 0,0 l/m 0 min 0 min 0 W/m 9,7 km/h (2 Bft) 97,87 %
02.04.2021 22:02 6,9 C 6,1 C 3,9 C 73 % 1025,6 hPa 0,0 l/m 0 min 0 min 0 W/m 9,7 km/h (2 Bft) 95,74 %
02.04.2021 22:04 6,9 C 6,1 C 3,9 C 73 % 1025,7 hPa 0,0 l/m 0 min 0 min 0 W/m 9,7 km/h (2 Bft) 97,83 %
02.04.2021 22:06 6,9 C 6,1 C 3,9 C 73 % 1025,7 hPa 0,0 l/m 0 min 0 min 0 W/m 12,9 km/h (3 Bft) 97,87 %
02.04.2021 22:08 6,9 C 6,1 C 3,9 C 74 % 1025,7 hPa 0,0 l/m 0 min 0 min 0 W/m 6,4 km/h (2 Bft) 97,87 %
02.04.2021 22:10 6,9 C 6,1 C 3,9 C 74 % 1025,8 hPa 0,0 l/m 0 min 0 min 0 W/m 9,7 km/h (2 Bft) 97,87 %
02.04.2021 22:12 6,9 C 6,1 C 3,9 C 74 % 1025,8 hPa 0,0 l/m 0 min 0 min 0 W/m 9,7 km/h (2 Bft) 97,87 %
02.04.2021 22:14 6,9 C 6,1 C 3,9 C 74 % 1025,8 hPa 0,0 l/m 0 min 0 min 0 W/m 6,4 km/h (2 Bft) 97,87 %
02.04.2021 22:16 6,9 C 6,1 C 3,9 C 74 % 1025,8 hPa 0,0 l/m 0 min 0 min 0 W/m 6,4 km/h (2 Bft) 97,83 %
02.04.2021 22:18 6,9 C 6,1 C 3,9 C 74 % 1025,7 hPa 0,0 l/m 0 min 0 min 0 W/m 9,7 km/h (2 Bft) 95,74 %
02.04.2021 22:20 6,9 C 6,1 C 3,9 C 74 % 1025,7 hPa 0,0 l/m 0 min 0 min 0 W/m 12,9 km/h (3 Bft) 97,87 %
02.04.2021 22:22 6,9 C 6,1 C 3,9 C 74 % 1025,7 hPa 0,0 l/m 0 min 0 min 0 W/m 16,1 km/h (3 Bft) 97,87 %
02.04.2021 22:24 6,9 C 6,1 C 3,9 C 74 % 1025,7 hPa 0,0 l/m 0 min 0 min 0 W/m 9,7 km/h (2 Bft) 95,74 %
02.04.2021 22:26 6,9 C 6,1 C 3,9 C 74 % 1025,7 hPa 0,0 l/m 0 min 0 min 0 W/m 16,1 km/h (3 Bft) 95,74 %
02.04.2021 22:28 6,9 C 6,1 C 3,9 C 74 % 1025,6 hPa 0,0 l/m 0 min 0 min 0 W/m 16,1 km/h (3 Bft) 97,83 %
02.04.2021 22:30 6,9 C 6,1 C 3,9 C 74 % 1025,7 hPa 0,0 l/m 0 min 0 min 0 W/m 9,7 km/h (2 Bft) 95,74 %
02.04.2021 22:32 6,9 C 6,1 C 3,9 C 74 % 1025,7 hPa 0,0 l/m 0 min 0 min 0 W/m 12,9 km/h (3 Bft) 97,87 %
02.04.2021 22:34 6,9 C 6,1 C 3,9 C 74 % 1025,7 hPa 0,0 l/m 0 min 0 min 0 W/m 9,7 km/h (2 Bft) 100,00 %
02.04.2021 22:36 6,9 C 6,1 C 3,9 C 74 % 1025,7 hPa 0,0 l/m 0 min 0 min 0 W/m 6,4 km/h (2 Bft) 97,87 %
02.04.2021 22:38 6,9 C 6,1 C 3,9 C 75 % 1025,8 hPa 0,0 l/m 0 min 0 min 0 W/m 12,9 km/h (3 Bft) 100,00 %
02.04.2021 22:40 6,9 C 6,1 C 3,9 C 75 % 1025,8 hPa 0,0 l/m 0 min 0 min 0 W/m 9,7 km/h (2 Bft) 100,00 %
02.04.2021 22:42 6,9 C 6,1 C 3,9 C 75 % 1025,7 hPa 0,0 l/m 0 min 0 min 0 W/m 6,4 km/h (2 Bft) 100,00 %
02.04.2021 22:44 6,9 C 6,1 C 3,9 C 75 % 1025,7 hPa 0,0 l/m 0 min 0 min 0 W/m 12,9 km/h (3 Bft) 100,00 %
02.04.2021 22:46 6,9 C 6,1 C 3,9 C 75 % 1025,8 hPa 0,0 l/m 0 min 0 min 0 W/m 12,9 km/h (3 Bft) 100,00 %
02.04.2021 22:48 6,9 C 6,1 C 3,9 C 75 % 1025,7 hPa 0,0 l/m 0 min 0 min 0 W/m 9,7 km/h (2 Bft) 100,00 %
02.04.2021 22:50 6,9 C 6,1 C 3,9 C 75 % 1025,7 hPa 0,0 l/m 0 min 0 min 0 W/m 12,9 km/h (3 Bft) 100,00 %
02.04.2021 22:52 6,9 C 6,1 C 3,9 C 75 % 1025,8 hPa 0,0 l/m 0 min 0 min 0 W/m 25,7 km/h (4 Bft) 100,00 %
02.04.2021 22:54 6,9 C 6,1 C 3,9 C 75 % 1025,8 hPa 0,0 l/m 0 min 0 min 0 W/m 22,5 km/h (4 Bft) 100,00 %
02.04.2021 22:56 6,9 C 6,1 C 3,9 C 76 % 1025,8 hPa 0,0 l/m 0 min 0 min 0 W/m 9,7 km/h (2 Bft) 97,87 %
02.04.2021 22:58 6,9 C 6,1 C 3,9 C 76 % 1025,9 hPa 0,0 l/m 0 min 0 min 0 W/m 12,9 km/h (3 Bft) 97,87 %
02.04.2021 23:00 6,9 C 6,1 C 3,9 C 77 % 1025,9 hPa 0,0 l/m 0 min 0 min 0 W/m 19,3 km/h (3 Bft) 97,87 %
02.04.2021 23:02 6,9 C 6,1 C 3,9 C 78 % 1025,8 hPa 0,0 l/m 0 min 0 min 0 W/m 19,3 km/h (3 Bft) 95,65 %
02.04.2021 23:04 6,8 C 6,1 C 3,9 C 78 % 1025,8 hPa 0,0 l/m 0 min 0 min 0 W/m 32,2 km/h (5 Bft) 97,87 %
02.04.2021 23:06 6,8 C 6,1 C 3,4 C 79 % 1025,8 hPa 0,0 l/m 0 min 0 min 0 W/m 22,5 km/h (4 Bft) 93,62 %
02.04.2021 23:08 6,8 C 6,1 C 3,4 C 79 % 1025,8 hPa 0,0 l/m 0 min 0 min 0 W/m 12,9 km/h (3 Bft) 95,74 %
02.04.2021 23:10 6,7 C 6,1 C 3,4 C 80 % 1025,8 hPa 0,0 l/m 0 min 0 min 0 W/m 12,9 km/h (3 Bft) 97,87 %
02.04.2021 23:12 6,7 C 6,1 C 3,4 C 80 % 1025,8 hPa 0,0 l/m 0 min 0 min 0 W/m 6,4 km/h (2 Bft) 97,87 %
02.04.2021 23:14 6,6 C 6,1 C 3,4 C 81 % 1025,8 hPa 0,0 l/m 0 min 0 min 0 W/m 19,3 km/h (3 Bft) 97,83 %
02.04.2021 23:16 6,6 C 6,1 C 3,4 C 81 % 1025,7 hPa 0,0 l/m 0 min 0 min 0 W/m 19,3 km/h (3 Bft) 97,87 %
02.04.2021 23:18 6,6 C 5,6 C 3,4 C 81 % 1025,7 hPa 0,0 l/m 0 min 0 min 0 W/m 12,9 km/h (3 Bft) 97,92 %
02.04.2021 23:20 6,6 C 5,6 C 3,4 C 82 % 1025,8 hPa 0,0 l/m 0 min 0 min 0 W/m 12,9 km/h (3 Bft) 97,87 %
02.04.2021 23:22 6,5 C 5,6 C 3,4 C 82 % 1025,8 hPa 0,0 l/m 0 min 0 min 0 W/m 16,1 km/h (3 Bft) 96,36 %
02.04.2021 23:24 6,5 C 5,6 C 3,4 C 82 % 1025,7 hPa 0,0 l/m 0 min 0 min 0 W/m 16,1 km/h (3 Bft) 97,83 %
02.04.2021 23:26 6,5 C 5,6 C 3,4 C 82 % 1025,7 hPa 0,0 l/m 0 min 0 min 0 W/m 22,5 km/h (4 Bft) 97,87 %
02.04.2021 23:28 6,4 C 5,6 C 3,4 C 82 % 1025,7 hPa 0,0 l/m 0 min 0 min 0 W/m 19,3 km/h (3 Bft) 97,87 %
02.04.2021 23:30 6,4 C 5,6 C 3,4 C 82 % 1025,7 hPa 0,0 l/m 0 min 0 min 0 W/m 16,1 km/h (3 Bft) 97,87 %
02.04.2021 23:32 6,4 C 5,6 C 3,4 C 83 % 1025,7 hPa 0,0 l/m 0 min 0 min 0 W/m 16,1 km/h (3 Bft) 95,83 %
02.04.2021 23:34 6,4 C 5,6 C 3,4 C 83 % 1025,8 hPa 0,0 l/m 0 min 0 min 0 W/m 12,9 km/h (3 Bft) 97,87 %
02.04.2021 23:36 6,4 C 5,6 C 3,4 C 83 % 1025,8 hPa 0,0 l/m 0 min 0 min 0 W/m 12,9 km/h (3 Bft) 95,65 %
02.04.2021 23:38 6,4 C 5,6 C 3,4 C 83 % 1025,8 hPa 0,0 l/m 0 min 0 min 0 W/m 12,9 km/h (3 Bft) 97,87 %
02.04.2021 23:40 6,3 C 5,6 C 3,4 C 83 % 1025,8 hPa 0,0 l/m 0 min 0 min 0 W/m 12,9 km/h (3 Bft) 95,74 %
02.04.2021 23:42 6,3 C 5,6 C 3,4 C 83 % 1025,8 hPa 0,0 l/m 0 min 0 min 0 W/m 12,9 km/h (3 Bft) 97,87 %
02.04.2021 23:44 6,3 C 5,6 C 3,4 C 83 % 1025,8 hPa 0,0 l/m 0 min 0 min 0 W/m 6,4 km/h (2 Bft) 97,87 %
02.04.2021 23:46 6,3 C 5,6 C 3,4 C 83 % 1025,7 hPa 0,0 l/m 0 min 0 min 0 W/m 9,7 km/h (2 Bft) 93,62 %
02.04.2021 23:48 6,3 C 5,6 C 3,4 C 84 % 1025,8 hPa 0,0 l/m 0 min 0 min 0 W/m 6,4 km/h (2 Bft) 100,00 %
02.04.2021 23:50 6,3 C 5,6 C 3,4 C 84 % 1025,7 hPa 0,0 l/m 0 min 0 min 0 W/m 9,7 km/h (2 Bft) 100,00 %
02.04.2021 23:52 6,3 C 5,6 C 3,4 C 84 % 1025,7 hPa 0,0 l/m 0 min 0 min 0 W/m 9,7 km/h (2 Bft) 100,00 %
02.04.2021 23:54 6,3 C 5,6 C 3,4 C 84 % 1025,7 hPa 0,0 l/m 0 min 0 min 0 W/m 9,7 km/h (2 Bft) 100,00 %
02.04.2021 23:56 6,2 C 5,6 C 3,4 C 84 % 1025,7 hPa 0,0 l/m 0 min 0 min 0 W/m 9,7 km/h (2 Bft) 97,87 %
02.04.2021 23:58 6,3 C 5,6 C 3,4 C 84 % 1025,8 hPa 0,0 l/m 0 min 0 min 0 W/m 9,7 km/h (2 Bft) 100,00 %
_ Min-Zeit 04:24 03:28 04:10 16:52 03:06 - - - - 03:40 05:28
Minimum _ 3,9 C 3,3 C 1,1 C 68 % 1024,7 hPa - - - - 0,0 km/h (0 Bft) 41,18 %
_ Max-Zeit 15:02 14:44 14:46 05:10 11:12 00:00 14:40 00:00 15:04 17:40 00:00
Maximum _ 9,0 C 12,2 C 7,8 C 92 % 1026,4 hPa 0,0 l/m 2 min 0 min 718 W/m 38,6 km/h
N (5 Bft)
100,00 %
Durchschnitt _ 6,2 C 6,1 C 3,9 C 83 % 1025,5 hPa #0,0 l/m #1:12 h #0 min. 135 W/m 14,5 km/h (3 Bft) 97,27 %
© 2021 W. Hausmann